| time (UTC) | temp F | wind direction | speed MPH | gust MPH | rain 1hr in | rain 24hr in | rain mn in | humidity % | barometer mb |
| 20260509145341 | 69 | 22 | 1.0 | 0.0 | 0.00 | 0.00 | 0.80 | 97 | 1005.6 |
| 20260509145241 | 69 | 55 | 1.0 | 0.0 | 0.00 | 0.00 | 0.80 | 97 | 1005.6 |
| 20260509145117 | 69 | 36 | 1.0 | 0.0 | 0.00 | 0.00 | 0.80 | 97 | 1005.6 |
| 20260509145029 | 69 | 340 | 1.0 | 0.0 | 0.00 | 0.00 | 0.80 | 97 | 1005.6 |
| 20260509144934 | 69 | 72 | 1.0 | 0.0 | 0.00 | 0.00 | 0.80 | 97 | 1005.6 |
| 20260509144847 | 69 | 36 | 1.0 | 0.0 | 0.00 | 0.00 | 0.80 | 97 | 1005.6 |
| 20260509144730 | 68 | 86 | 1.0 | 0.0 | 0.00 | 0.00 | 0.80 | 97 | 1005.6 |
| 20260509144622 | 68 | 65 | 1.0 | 0.0 | 0.00 | 0.00 | 0.80 | 97 | 1005.6 |
| 20260509144547 | 68 | 40 | 1.0 | 0.0 | 0.00 | 0.00 | 0.80 | 97 | 1005.6 |
| 20260509144447 | 68 | 53 | 1.0 | 0.0 | 0.00 | 0.00 | 0.80 | 97 | 1005.6 |
| 20260509144320 | 68 | 75 | 0.0 | 0.0 | 0.00 | 0.00 | 0.80 | 97 | 1005.6 |
| 20260509144234 | 68 | 55 | 1.0 | 0.0 | 0.00 | 0.00 | 0.80 | 97 | 1005.6 |
| 20260509144136 | 68 | 49 | 1.0 | 0.0 | 0.00 | 0.00 | 0.80 | 97 | 1005.6 |
| 20260509144034 | 68 | 30 | 1.0 | 0.0 | 0.00 | 0.00 | 0.80 | 97 | 1005.6 |
| 20260509143959 | 68 | 34 | 1.0 | 0.0 | 0.00 | 0.00 | 0.80 | 97 | 1005.6 |
| 20260509143830 | 68 | 351 | 1.0 | 0.0 | 0.00 | 0.00 | 0.80 | 97 | 1005.6 |
| 20260509143722 | 68 | 225 | 1.0 | 0.0 | 0.00 | 0.00 | 0.80 | 97 | 1005.6 |
| 20260509143626 | 68 | 124 | 1.0 | 0.0 | 0.00 | 0.00 | 0.80 | 97 | 1005.6 |
| 20260509143522 | 68 | 14 | 1.0 | 0.0 | 0.00 | 0.00 | 0.80 | 97 | 1005.6 |
| 20260509143418 | 68 | 118 | 1.0 | 0.0 | 0.00 | 0.00 | 0.80 | 97 | 1005.6 |
| 20260509143322 | 68 | 44 | 1.0 | 0.0 | 0.00 | 0.00 | 0.80 | 97 | 1005.6 |
| 20260509143236 | 68 | 16 | 1.0 | 0.0 | 0.00 | 0.00 | 0.80 | 97 | 1005.6 |
| 20260509143139 | 67 | 21 | 1.0 | 0.0 | 0.00 | 0.00 | 0.80 | 97 | 1005.6 |
| 20260509143018 | 67 | 196 | 1.0 | 0.0 | 0.00 | 0.00 | 0.80 | 97 | 1006.4 |
| 20260509142932 | 67 | 98 | 2.0 | 0.0 | 0.00 | 0.00 | 0.80 | 97 | 1006.4 |
| 20260509142839 | 67 | 98 | 2.0 | 0.0 | 0.00 | 0.00 | 0.80 | 97 | 1006.4 |
| 20260509142729 | 67 | 16 | 2.0 | 0.0 | 0.00 | 0.00 | 0.80 | 97 | 1006.4 |
| 20260509142631 | 67 | 30 | 2.0 | 0.0 | 0.00 | 0.00 | 0.80 | 97 | 1006.4 |
| 20260509142530 | 67 | 99 | 2.0 | 0.0 | 0.00 | 0.00 | 0.80 | 97 | 1006.4 |
| 20260509142422 | 67 | 173 | 2.0 | 0.0 | 0.00 | 0.00 | 0.80 | 97 | 1006.4 |
| 20260509142322 | 67 | 78 | 2.0 | 0.0 | 0.00 | 0.00 | 0.80 | 97 | 1006.4 |
| 20260509142218 | 67 | 92 | 2.0 | 0.0 | 0.00 | 0.00 | 0.80 | 97 | 1006.4 |
| 20260509142142 | 67 | 68 | 2.0 | 0.0 | 0.00 | 0.00 | 0.80 | 97 | 1006.4 |
| 20260509142034 | 67 | 314 | 3.0 | 0.0 | 0.00 | 0.00 | 0.80 | 97 | 1006.4 |
| 20260509141926 | 67 | 347 | 3.0 | 0.0 | 0.00 | 0.00 | 0.80 | 97 | 1006.4 |
| 20260509141834 | 67 | 45 | 2.0 | 0.0 | 0.00 | 0.00 | 0.80 | 97 | 1006.4 |
| 20260509141723 | 67 | 126 | 2.0 | 0.0 | 0.00 | 0.00 | 0.80 | 97 | 1006.4 |
| 20260509141650 | 67 | 156 | 2.0 | 0.0 | 0.00 | 0.00 | 0.80 | 97 | 1007.1 |
| 20260509141541 | 67 | 30 | 2.0 | 0.0 | 0.00 | 0.00 | 0.80 | 97 | 1007.1 |
| 20260509141421 | 67 | 52 | 2.0 | 0.0 | 0.00 | 0.00 | 0.80 | 97 | 1007.1 |
| 20260509141322 | 67 | 304 | 1.0 | 0.0 | 0.00 | 0.00 | 0.79 | 97 | 1007.1 |
| 20260509141243 | 67 | 104 | 1.0 | 0.0 | 0.00 | 0.00 | 0.79 | 97 | 1007.1 |
| 20260509141135 | 67 | 275 | 1.0 | 0.0 | 0.00 | 0.00 | 0.78 | 97 | 1007.1 |
| 20260509141032 | 67 | 208 | 1.0 | 0.0 | 0.00 | 0.00 | 0.77 | 97 | 1007.1 |
| 20260509140953 | 67 | 74 | 1.0 | 0.0 | 0.00 | 0.00 | 0.76 | 96 | 1007.1 |
| 20260509140851 | 67 | 138 | 1.0 | 0.0 | 0.00 | 0.00 | 0.75 | 96 | 1007.1 |
| 20260509140725 | 67 | 90 | 1.0 | 0.0 | 0.00 | 0.00 | 0.74 | 96 | 1007.1 |
| 20260509140647 | 67 | 355 | 1.0 | 0.0 | 0.00 | 0.00 | 0.74 | 96 | 1007.1 |
| 20260509140522 | 67 | 80 | 1.0 | 0.0 | 0.00 | 0.00 | 0.73 | 96 | 1007.1 |
| 20260509140423 | 67 | 57 | 1.0 | 0.0 | 0.00 | 0.00 | 0.73 | 96 | 1007.1 |
| 20260509140344 | 67 | 103 | 1.0 | 0.0 | 0.00 | 0.00 | 0.73 | 96 | 1007.1 |
| 20260509140222 | 67 | 47 | 1.0 | 0.0 | 0.00 | 0.00 | 0.73 | 96 | 1007.1 |
| 20260509140117 | 67 | 21 | 2.0 | 0.0 | 0.00 | 0.00 | 0.73 | 96 | 1007.2 |
| 20260509140023 | 67 | 65 | 2.0 | 0.0 | 0.00 | 0.00 | 0.72 | 96 | 1007.2 |
| 20260509135914 | 67 | 36 | 3.0 | 0.0 | 0.00 | 0.00 | 0.72 | 96 | 1007.2 |
| 20260509135841 | 67 | 51 | 4.0 | 0.0 | 0.00 | 0.00 | 0.72 | 96 | 1007.2 |
| 20260509135730 | 68 | 105 | 4.0 | 0.0 | 0.00 | 0.00 | 0.71 | 96 | 1007.2 |
| 20260509135634 | 68 | 38 | 5.0 | 0.0 | 0.00 | 0.00 | 0.70 | 95 | 1007.2 |
| 20260509135526 | 68 | 21 | 6.0 | 0.0 | 0.00 | 0.00 | 0.68 | 95 | 1007.2 |
| 20260509135422 | 68 | 350 | 8.0 | 0.0 | 0.00 | 0.00 | 0.63 | 95 | 1007.2 |
| 20260509135328 | 68 | 330 | 8.0 | 0.0 | 0.00 | 0.00 | 0.59 | 95 | 1007.2 |
| 20260509135239 | 68 | 26 | 8.0 | 0.0 | 0.00 | 0.00 | 0.54 | 95 | 1007.2 |
| 20260509135140 | 68 | 341 | 9.0 | 0.0 | 0.00 | 0.00 | 0.48 | 94 | 1007.2 |
| 20260509135030 | 69 | 58 | 11.0 | 0.0 | 0.00 | 0.00 | 0.39 | 94 | 1007.2 |
| 20260509134927 | 69 | 340 | 11.0 | 0.0 | 0.00 | 0.00 | 0.31 | 93 | 1007.2 |
| 20260509134827 | 70 | 49 | 10.0 | 0.0 | 0.00 | 0.00 | 0.24 | 93 | 1007.2 |
| 20260509134740 | 71 | 294 | 10.0 | 0.0 | 0.00 | 0.00 | 0.17 | 93 | 1007.2 |
| 20260509134629 | 71 | 313 | 9.0 | 0.0 | 0.00 | 0.00 | 0.13 | 92 | 1004.4 |
| 20260509134523 | 71 | 311 | 8.0 | 0.0 | 0.00 | 0.00 | 0.07 | 91 | 1004.4 |
| 20260509134445 | 71 | 304 | 8.0 | 0.0 | 0.00 | 0.00 | 0.06 | 91 | 1004.4 |
| 20260509134318 | 72 | 294 | 6.0 | 0.0 | 0.00 | 0.00 | 0.05 | 91 | 1004.4 |
| 20260509134232 | 72 | 301 | 5.0 | 0.0 | 0.00 | 0.00 | 0.05 | 91 | 1004.4 |
| 20260509134133 | 72 | 297 | 4.0 | 0.0 | 0.00 | 0.00 | 0.05 | 91 | 1004.4 |
| 20260509134028 | 72 | 290 | 2.0 | 0.0 | 0.00 | 0.00 | 0.05 | 91 | 1004.4 |
| 20260509133925 | 72 | 295 | 2.0 | 0.0 | 0.00 | 0.00 | 0.05 | 91 | 1004.4 |
| 20260509133850 | 71 | 317 | 1.0 | 0.0 | 0.00 | 0.00 | 0.05 | 91 | 1004.4 |
| 20260509133722 | 71 | 294 | 0.0 | 0.0 | 0.00 | 0.00 | 0.05 | 91 | 1004.4 |
| 20260509133643 | 71 | 290 | 1.0 | 0.0 | 0.00 | 0.00 | 0.05 | 91 | 1004.4 |
| 20260509133543 | 71 | 257 | 1.0 | 0.0 | 0.00 | 0.00 | 0.05 | 91 | 1004.4 |
| 20260509133434 | 71 | 59 | 0.0 | 0.0 | 0.00 | 0.00 | 0.05 | 91 | 1004.4 |
| 20260509133329 | 71 | 22 | 0.0 | 0.0 | 0.00 | 0.00 | 0.05 | 92 | 1004.4 |
| 20260509133236 | 71 | 30 | 0.0 | 0.0 | 0.00 | 0.00 | 0.05 | 92 | 1004.4 |
| 20260509133133 | 71 | 30 | 0.0 | 0.0 | 0.00 | 0.00 | 0.05 | 92 | 1004.3 |
| 20260509133053 | 71 | 87 | 1.0 | 0.0 | 0.00 | 0.00 | 0.05 | 92 | 1004.3 |
| 20260509132930 | 71 | 26 | 1.0 | 0.0 | 0.00 | 0.00 | 0.05 | 92 | 1004.3 |
| 20260509132833 | 71 | 125 | 1.0 | 0.0 | 0.00 | 0.00 | 0.05 | 92 | 1004.3 |
| 20260509132724 | 71 | 81 | 1.0 | 0.0 | 0.00 | 0.00 | 0.05 | 92 | 1004.3 |
| 20260509132646 | 71 | 9 | 1.0 | 0.0 | 0.00 | 0.00 | 0.05 | 92 | 1004.3 |
| 20260509132522 | 71 | 314 | 2.0 | 0.0 | 0.00 | 0.00 | 0.05 | 92 | 1004.3 |
| 20260509132433 | 71 | 334 | 2.0 | 0.0 | 0.00 | 0.00 | 0.05 | 92 | 1004.3 |
| 20260509132337 | 71 | 24 | 2.0 | 0.0 | 0.00 | 0.00 | 0.05 | 92 | 1004.3 |
| 20260509132232 | 71 | 350 | 2.0 | 0.0 | 0.00 | 0.00 | 0.05 | 92 | 1004.3 |
| 20260509132124 | 71 | 117 | 3.0 | 0.0 | 0.00 | 0.00 | 0.05 | 92 | 1004.3 |
| 20260509132025 | 71 | 88 | 3.0 | 0.0 | 0.00 | 0.00 | 0.05 | 92 | 1004.3 |
| 20260509131921 | 71 | 76 | 3.0 | 0.0 | 0.00 | 0.00 | 0.05 | 92 | 1004.3 |
| 20260509131842 | 71 | 9 | 3.0 | 0.0 | 0.00 | 0.00 | 0.05 | 92 | 1004.3 |
| 20260509131740 | 71 | 49 | 3.0 | 0.0 | 0.00 | 0.00 | 0.05 | 92 | 1004.3 |
| 20260509131705 | 71 | 53 | 3.0 | 0.0 | 0.00 | 0.00 | 0.05 | 92 | 1004.3 |
| 20260509131536 | 71 | 23 | 3.0 | 0.0 | 0.00 | 0.00 | 0.05 | 92 | 1004.4 |
| 20260509131431 | 71 | 27 | 3.0 | 0.0 | 0.00 | 0.00 | 0.05 | 92 | 1004.4 |
| 20260509131336 | 71 | 39 | 3.0 | 0.0 | 0.00 | 0.00 | 0.05 | 92 | 1004.4 |
| 20260509131252 | 71 | 50 | 3.0 | 0.0 | 0.00 | 0.00 | 0.05 | 92 | 1004.4 |
| 20260509131134 | 71 | 55 | 3.0 | 0.0 | 0.00 | 0.00 | 0.05 | 92 | 1004.4 |
| 20260509131030 | 71 | 53 | 3.0 | 0.0 | 0.00 | 0.00 | 0.05 | 92 | 1004.4 |
| 20260509130926 | 71 | 349 | 3.0 | 0.0 | 0.00 | 0.00 | 0.05 | 92 | 1004.4 |
| 20260509130827 | 71 | 73 | 3.0 | 0.0 | 0.00 | 0.00 | 0.05 | 92 | 1004.4 |
| 20260509130718 | 71 | 50 | 3.0 | 0.0 | 0.00 | 0.00 | 0.05 | 92 | 1004.4 |
| 20260509130645 | 71 | 36 | 3.0 | 0.0 | 0.00 | 0.00 | 0.05 | 92 | 1004.4 |
| 20260509130536 | 71 | 78 | 3.0 | 0.0 | 0.00 | 0.00 | 0.05 | 92 | 1004.4 |
| 20260509130442 | 71 | 47 | 3.0 | 0.0 | 0.00 | 0.00 | 0.05 | 92 | 1004.4 |
| 20260509130318 | 71 | 42 | 3.0 | 0.0 | 0.00 | 0.00 | 0.05 | 92 | 1004.4 |
| 20260509130231 | 71 | 345 | 2.0 | 0.0 | 0.00 | 0.00 | 0.05 | 92 | 1004.4 |
| 20260509130135 | 71 | 51 | 2.0 | 0.0 | 0.00 | 0.00 | 0.05 | 92 | 1004.9 |
| 20260509130028 | 71 | 17 | 2.0 | 0.0 | 0.00 | 0.00 | 0.05 | 92 | 1004.9 |
| 20260509125924 | 71 | 58 | 1.0 | 0.0 | 0.00 | 0.00 | 0.05 | 92 | 1004.9 |
| 20260509125825 | 71 | 40 | 1.0 | 0.0 | 0.00 | 0.00 | 0.05 | 92 | 1004.9 |
| 20260509125736 | 71 | 36 | 1.0 | 0.0 | 0.00 | 0.00 | 0.05 | 92 | 1004.9 |
| 20260509125635 | 71 | 87 | 1.0 | 0.0 | 0.00 | 0.00 | 0.05 | 92 | 1004.9 |
| 20260509125517 | 71 | 61 | 1.0 | 0.0 | 0.00 | 0.00 | 0.05 | 91 | 1004.9 |
| 20260509125434 | 71 | 11 | 0.0 | 0.0 | 0.00 | 0.00 | 0.05 | 91 | 1004.9 |
| 20260509125335 | 71 | 35 | 0.0 | 0.0 | 0.00 | 0.00 | 0.05 | 91 | 1004.9 |
| 20260509125245 | 71 | 39 | 0.0 | 0.0 | 0.00 | 0.00 | 0.05 | 91 | 1004.9 |
| 20260509125127 | 70 | 38 | 0.0 | 0.0 | 0.00 | 0.00 | 0.05 | 91 | 1004.9 |
| 20260509125020 | 70 | 26 | 0.0 | 0.0 | 0.00 | 0.00 | 0.05 | 90 | 1004.9 |
| 20260509124922 | 70 | 30 | 1.0 | 0.0 | 0.00 | 0.00 | 0.05 | 90 | 1004.9 |
| 20260509124833 | 70 | 93 | 1.0 | 0.0 | 0.00 | 0.00 | 0.05 | 90 | 1004.9 |
| 20260509124736 | 70 | 92 | 1.0 | 0.0 | 0.00 | 0.00 | 0.05 | 90 | 1004.9 |
| 20260509124633 | 70 | 28 | 2.0 | 0.0 | 0.00 | 0.00 | 0.05 | 89 | 1004.0 |
| 20260509124532 | 70 | 110 | 2.0 | 0.0 | 0.00 | 0.00 | 0.05 | 89 | 1004.0 |
| 20260509124456 | 70 | 20 | 2.0 | 0.0 | 0.00 | 0.00 | 0.05 | 89 | 1004.0 |
| 20260509124358 | 70 | 34 | 3.0 | 0.0 | 0.00 | 0.00 | 0.05 | 89 | 1004.0 |
| 20260509124231 | 70 | 30 | 3.0 | 0.0 | 0.00 | 0.00 | 0.05 | 89 | 1004.0 |
| 20260509124124 | 71 | 30 | 4.0 | 0.0 | 0.00 | 0.00 | 0.05 | 89 | 1004.0 |
| 20260509124025 | 71 | 32 | 4.0 | 0.0 | 0.00 | 0.00 | 0.05 | 89 | 1004.0 |
| 20260509123921 | 71 | 28 | 4.0 | 0.0 | 0.00 | 0.00 | 0.05 | 88 | 1004.0 |
| 20260509123846 | 71 | 51 | 4.0 | 0.0 | 0.00 | 0.00 | 0.05 | 88 | 1004.0 |
| 20260509123718 | 71 | 48 | 4.0 | 0.0 | 0.00 | 0.00 | 0.05 | 88 | 1004.0 |
| 20260509123643 | 71 | 19 | 4.0 | 0.0 | 0.00 | 0.00 | 0.05 | 88 | 1004.0 |
| 20260509123603 | 71 | 33 | 5.0 | 0.0 | 0.00 | 0.00 | 0.05 | 88 | 1004.0 |
| 20260509123420 | 71 | 22 | 5.0 | 0.0 | 0.00 | 0.00 | 0.05 | 88 | 1004.0 |
| 20260509123336 | 71 | 41 | 5.0 | 0.0 | 0.00 | 0.00 | 0.05 | 88 | 1004.0 |
| 20260509123236 | 71 | 41 | 5.0 | 0.0 | 0.00 | 0.00 | 0.05 | 88 | 1004.0 |
| 20260509123128 | 71 | 47 | 5.0 | 0.0 | 0.00 | 0.00 | 0.05 | 88 | 1003.6 |
| 20260509123039 | 71 | 19 | 5.0 | 0.0 | 0.00 | 0.00 | 0.05 | 88 | 1003.6 |
| 20260509122951 | 70 | 68 | 5.0 | 0.0 | 0.00 | 0.00 | 0.05 | 88 | 1003.6 |
| 20260509122831 | 70 | 26 | 5.0 | 0.0 | 0.00 | 0.00 | 0.05 | 88 | 1003.6 |
| 20260509122727 | 70 | 53 | 5.0 | 0.0 | 0.00 | 0.00 | 0.05 | 88 | 1003.6 |
| 20260509122623 | 70 | 57 | 5.0 | 0.0 | 0.00 | 0.00 | 0.05 | 88 | 1003.6 |
| 20260509122545 | 70 | 31 | 5.0 | 0.0 | 0.00 | 0.00 | 0.05 | 89 | 1003.6 |
| 20260509122415 | 70 | 59 | 5.0 | 0.0 | 0.00 | 0.00 | 0.05 | 90 | 1003.6 |
| 20260509122326 | 70 | 58 | 5.0 | 0.0 | 0.00 | 0.00 | 0.05 | 90 | 1003.6 |
| 20260509122217 | 70 | 33 | 5.0 | 0.0 | 0.00 | 0.00 | 0.05 | 91 | 1003.6 |
| 20260509122144 | 70 | 41 | 5.0 | 0.0 | 0.00 | 0.00 | 0.05 | 91 | 1003.6 |
| 20260509122019 | 70 | 75 | 5.0 | 0.0 | 0.00 | 0.00 | 0.05 | 91 | 1003.6 |
| 20260509121932 | 70 | 24 | 5.0 | 0.0 | 0.00 | 0.00 | 0.05 | 92 | 1003.6 |
| 20260509121833 | 70 | 97 | 5.0 | 0.0 | 0.00 | 0.00 | 0.05 | 92 | 1003.6 |
| 20260509121724 | 70 | 63 | 5.0 | 0.0 | 0.00 | 0.00 | 0.05 | 93 | 1003.6 |
| 20260509121621 | 70 | 67 | 4.0 | 0.0 | 0.00 | 0.00 | 0.05 | 93 | 1003.8 |
| 20260509121522 | 69 | 38 | 4.0 | 0.0 | 0.00 | 0.00 | 0.05 | 93 | 1003.8 |
| 20260509121434 | 69 | 105 | 3.0 | 0.0 | 0.00 | 0.00 | 0.05 | 93 | 1003.8 |
| 20260509121339 | 69 | 115 | 3.0 | 0.0 | 0.00 | 0.00 | 0.05 | 93 | 1003.8 |
| 20260509121235 | 69 | 26 | 2.0 | 0.0 | 0.00 | 0.00 | 0.05 | 93 | 1003.8 |
| 20260509121131 | 69 | 26 | 2.0 | 0.0 | 0.00 | 0.00 | 0.05 | 93 | 1003.8 |
| 20260509121032 | 69 | 51 | 2.0 | 0.0 | 0.00 | 0.00 | 0.05 | 94 | 1003.8 |
| 20260509120929 | 69 | 26 | 2.0 | 0.0 | 0.00 | 0.00 | 0.05 | 94 | 1003.8 |
| 20260509120854 | 69 | 27 | 2.0 | 0.0 | 0.00 | 0.00 | 0.05 | 94 | 1003.8 |
| 20260509120728 | 69 | 347 | 2.0 | 0.0 | 0.00 | 0.00 | 0.05 | 94 | 1003.8 |
| 20260509120621 | 69 | 11 | 3.0 | 0.0 | 0.00 | 0.00 | 0.05 | 94 | 1003.8 |
| 20260509120522 | 69 | 32 | 4.0 | 0.0 | 0.00 | 0.00 | 0.05 | 94 | 1003.8 |
| 20260509120444 | 69 | 42 | 4.0 | 0.0 | 0.00 | 0.00 | 0.05 | 94 | 1003.8 |
| 20260509120355 | 69 | 36 | 5.0 | 0.0 | 0.00 | 0.00 | 0.05 | 94 | 1003.8 |
| 20260509120235 | 69 | 104 | 5.0 | 0.0 | 0.00 | 0.00 | 0.05 | 94 | 1003.8 |
| 20260509120137 | 69 | 29 | 6.0 | 0.0 | 0.00 | 0.00 | 0.05 | 94 | 1003.8 |
| 20260509120043 | 69 | 67 | 6.0 | 0.0 | 0.00 | 0.00 | 0.05 | 94 | 1003.7 |
| 20260509115916 | 69 | 35 | 6.0 | 0.0 | 0.00 | 0.00 | 0.05 | 94 | 1003.7 |
| 20260509115831 | 69 | 26 | 6.0 | 0.0 | 0.00 | 0.00 | 0.05 | 94 | 1003.7 |
| 20260509115733 | 69 | 69 | 6.0 | 0.0 | 0.00 | 0.00 | 0.05 | 93 | 1003.7 |
| 20260509115627 | 69 | 27 | 6.0 | 0.0 | 0.00 | 0.00 | 0.05 | 93 | 1003.7 |
| 20260509115549 | 69 | 31 | 6.0 | 0.0 | 0.00 | 0.00 | 0.05 | 93 | 1003.7 |
| 20260509115440 | 69 | 26 | 6.0 | 0.0 | 0.00 | 0.00 | 0.05 | 94 | 1003.7 |
| 20260509115344 | 69 | 17 | 6.0 | 0.0 | 0.00 | 0.00 | 0.05 | 94 | 1003.7 |
| 20260509115239 | 69 | 56 | 6.0 | 0.0 | 0.00 | 0.00 | 0.05 | 94 | 1003.7 |
| 20260509115200 | 69 | 57 | 6.0 | 0.0 | 0.00 | 0.00 | 0.05 | 94 | 1003.7 |
| 20260509115038 | 69 | 88 | 6.0 | 0.0 | 0.00 | 0.00 | 0.05 | 94 | 1003.7 |
| 20260509114959 | 69 | 30 | 6.0 | 0.0 | 0.00 | 0.00 | 0.05 | 94 | 1003.7 |
| 20260509114832 | 69 | 51 | 6.0 | 0.0 | 0.00 | 0.00 | 0.05 | 94 | 1003.7 |
| 20260509114721 | 69 | 31 | 6.0 | 0.0 | 0.00 | 0.00 | 0.05 | 94 | 1003.7 |
| 20260509114645 | 69 | 53 | 5.0 | 0.0 | 0.00 | 0.00 | 0.05 | 94 | 1004.2 |
| 20260509114522 | 69 | 91 | 5.0 | 0.0 | 0.00 | 0.00 | 0.05 | 94 | 1004.2 |
| 20260509114424 | 69 | 24 | 4.0 | 0.0 | 0.00 | 0.00 | 0.05 | 94 | 1004.2 |
| 20260509114334 | 69 | 59 | 4.0 | 0.0 | 0.00 | 0.00 | 0.05 | 95 | 1004.2 |
| 20260509114234 | 69 | 41 | 4.0 | 0.0 | 0.00 | 0.00 | 0.05 | 95 | 1004.2 |
| 20260509114147 | 69 | 17 | 2.0 | 0.0 | 0.00 | 0.00 | 0.05 | 95 | 1004.2 |
| 20260509114052 | 69 | 46 | 3.0 | 0.0 | 0.00 | 0.00 | 0.05 | 95 | 1004.2 |
| 20260509113922 | 69 | 62 | 3.0 | 0.0 | 0.00 | 0.00 | 0.05 | 95 | 1004.2 |
| 20260509113822 | 69 | 47 | 4.0 | 0.0 | 0.00 | 0.00 | 0.05 | 95 | 1004.2 |
| 20260509113744 | 69 | 14 | 4.0 | 0.0 | 0.00 | 0.00 | 0.05 | 95 | 1004.2 |
| 20260509113639 | 69 | 27 | 4.0 | 0.0 | 0.00 | 0.00 | 0.05 | 95 | 1004.2 |
| 20260509113539 | 70 | 39 | 5.0 | 0.0 | 0.00 | 0.00 | 0.05 | 95 | 1004.2 |
| 20260509113434 | 70 | 11 | 6.0 | 0.0 | 0.00 | 0.00 | 0.05 | 95 | 1004.2 |
| 20260509113335 | 70 | 40 | 7.0 | 0.0 | 0.00 | 0.00 | 0.05 | 95 | 1004.2 |
| 20260509113249 | 70 | 340 | 8.0 | 0.0 | 0.00 | 0.00 | 0.05 | 95 | 1004.2 |
| 20260509113130 | 70 | 19 | 8.0 | 0.0 | 0.00 | 0.00 | 0.05 | 94 | 1004.0 |
| 20260509113021 | 70 | 40 | 8.0 | 0.0 | 0.00 | 0.00 | 0.04 | 95 | 1004.0 |
| 20260509112945 | 70 | 41 | 8.0 | 0.0 | 0.00 | 0.00 | 0.04 | 94 | 1004.0 |
| 20260509112821 | 70 | 75 | 7.0 | 0.0 | 0.00 | 0.00 | 0.04 | 94 | 1004.0 |
| 20260509112734 | 70 | 55 | 8.0 | 0.0 | 0.00 | 0.00 | 0.04 | 94 | 1004.0 |
| 20260509112635 | 70 | 77 | 8.0 | 0.0 | 0.00 | 0.00 | 0.04 | 94 | 1004.0 |
| 20260509112531 | 70 | 42 | 7.0 | 0.0 | 0.00 | 0.00 | 0.04 | 94 | 1004.0 |
| 20260509112421 | 70 | 11 | 6.0 | 0.0 | 0.00 | 0.00 | 0.04 | 94 | 1004.0 |
| 20260509112325 | 70 | 342 | 6.0 | 0.0 | 0.00 | 0.00 | 0.04 | 94 | 1004.0 |
| 20260509112220 | 70 | 36 | 6.0 | 0.0 | 0.00 | 0.00 | 0.04 | 94 | 1004.0 |
| 20260509112144 | 70 | 14 | 6.0 | 0.0 | 0.00 | 0.00 | 0.03 | 94 | 1004.0 |
| 20260509112019 | 70 | 29 | 6.0 | 0.0 | 0.00 | 0.00 | 0.03 | 94 | 1004.0 |
| 20260509111916 | 70 | 41 | 5.0 | 0.0 | 0.00 | 0.00 | 0.03 | 94 | 1004.0 |
| 20260509111822 | 70 | 49 | 5.0 | 0.0 | 0.00 | 0.00 | 0.03 | 94 | 1004.0 |
| 20260509111732 | 71 | 40 | 4.0 | 0.0 | 0.00 | 0.00 | 0.03 | 93 | 1004.0 |
| 20260509111633 | 71 | 35 | 4.0 | 0.0 | 0.00 | 0.00 | 0.03 | 93 | 1003.6 |
| 20260509111543 | 71 | 25 | 4.0 | 0.0 | 0.00 | 0.00 | 0.03 | 94 | 1003.6 |
| 20260509111425 | 71 | 325 | 5.0 | 0.0 | 0.00 | 0.00 | 0.03 | 93 | 1003.6 |
| 20260509111345 | 71 | 19 | 5.0 | 0.0 | 0.00 | 0.00 | 0.03 | 93 | 1003.6 |
| 20260509111220 | 71 | 268 | 5.0 | 0.0 | 0.00 | 0.00 | 0.03 | 93 | 1003.6 |
| 20260509111134 | 71 | 45 | 5.0 | 0.0 | 0.00 | 0.00 | 0.02 | 92 | 1003.6 |
| 20260509111038 | 72 | 34 | 5.0 | 0.0 | 0.00 | 0.00 | 0.02 | 92 | 1003.6 |
| 20260509110949 | 72 | 26 | 4.0 | 0.0 | 0.00 | 0.00 | 0.02 | 92 | 1003.6 |
| 20260509110829 | 72 | 32 | 4.0 | 0.0 | 0.00 | 0.00 | 0.02 | 92 | 1003.6 |
| 20260509110720 | 72 | 38 | 5.0 | 0.0 | 0.00 | 0.00 | 0.01 | 91 | 1003.6 |
| 20260509110645 | 72 | 13 | 5.0 | 0.0 | 0.00 | 0.00 | 0.01 | 91 | 1003.6 |
| 20260509110521 | 73 | 24 | 5.0 | 0.0 | 0.00 | 0.00 | 0.01 | 90 | 1003.6 |
| 20260509110432 | 73 | 51 | 4.0 | 0.0 | 0.00 | 0.00 | 0.01 | 90 | 1003.6 |
| 20260509110333 | 73 | 38 | 3.0 | 0.0 | 0.00 | 0.00 | 0.01 | 89 | 1003.6 |
| 20260509110223 | 74 | 56 | 3.0 | 0.0 | 0.00 | 0.00 | 0.01 | 88 | 1003.6 |
| 20260509110146 | 74 | 21 | 2.0 | 0.0 | 0.00 | 0.00 | 0.01 | 88 | 1003.2 |
| 20260509110049 | 75 | 10 | 2.0 | 0.0 | 0.00 | 0.00 | 0.01 | 88 | 1003.2 |
| 20260509105939 | 75 | 18 | 2.0 | 0.0 | 0.00 | 0.00 | 0.01 | 88 | 1003.2 |
| 20260509105832 | 76 | 44 | 2.0 | 0.0 | 0.00 | 0.00 | 0.01 | 90 | 1003.2 |
| 20260509105759 | 76 | 28 | 2.0 | 0.0 | 0.00 | 0.00 | 0.01 | 93 | 1003.2 |
| 20260509105641 | 76 | 33 | 1.0 | 0.0 | 0.00 | 0.00 | 0.01 | 93 | 1003.2 |
| 20260509105532 | 76 | 18 | 0.0 | 0.0 | 0.00 | 0.00 | 0.01 | 93 | 1003.2 |
| 20260509105427 | 76 | 53 | 0.0 | 0.0 | 0.00 | 0.00 | 0.01 | 93 | 1003.2 |
| 20260509105327 | 76 | 36 | 0.0 | 0.0 | 0.00 | 0.00 | 0.01 | 93 | 1003.2 |
| 20260509105223 | 76 | 47 | 0.0 | 0.0 | 0.00 | 0.00 | 0.01 | 93 | 1003.2 |
| 20260509105115 | 76 | 60 | 0.0 | 0.0 | 0.00 | 0.00 | 0.01 | 94 | 1003.2 |
| 20260509105026 | 76 | 36 | 0.0 | 0.0 | 0.00 | 0.00 | 0.01 | 94 | 1003.2 |
| 20260509104921 | 76 | 20 | 0.0 | 0.0 | 0.00 | 0.00 | 0.01 | 94 | 1003.2 |
| 20260509104845 | 76 | 44 | 0.0 | 0.0 | 0.00 | 0.00 | 0.01 | 94 | 1003.2 |
| 20260509104735 | 76 | 47 | 0.0 | 0.0 | 0.00 | 0.00 | 0.01 | 94 | 1003.2 |
| 20260509104627 | 76 | 28 | 0.0 | 0.0 | 0.00 | 0.00 | 0.01 | 94 | 1002.9 |
| 20260509104528 | 76 | 15 | 0.0 | 0.0 | 0.00 | 0.00 | 0.01 | 94 | 1002.9 |
| 20260509104418 | 76 | 27 | 0.0 | 0.0 | 0.00 | 0.00 | 0.01 | 94 | 1002.9 |
| 20260509104343 | 76 | 34 | 0.0 | 0.0 | 0.00 | 0.00 | 0.01 | 94 | 1002.9 |
| 20260509104259 | 76 | 13 | 0.0 | 0.0 | 0.00 | 0.00 | 0.01 | 94 | 1002.9 |
| 20260509104138 | 76 | 349 | 0.0 | 0.0 | 0.00 | 0.00 | 0.01 | 94 | 1002.9 |
| 20260509104035 | 76 | 32 | 0.0 | 0.0 | 0.00 | 0.00 | 0.01 | 94 | 1002.9 |
| 20260509103935 | 76 | 53 | 0.0 | 0.0 | 0.00 | 0.00 | 0.01 | 94 | 1002.9 |
| 20260509103833 | 76 | 14 | 0.0 | 0.0 | 0.00 | 0.00 | 0.01 | 94 | 1002.9 |
| 20260509103734 | 76 | 35 | 0.0 | 0.0 | 0.00 | 0.00 | 0.01 | 94 | 1002.9 |
| 20260509103626 | 76 | 22 | 0.0 | 0.0 | 0.00 | 0.00 | 0.01 | 94 | 1002.9 |
| 20260509103548 | 76 | 360 | 0.0 | 0.0 | 0.00 | 0.00 | 0.01 | 94 | 1002.9 |
| 20260509103424 | 76 | 32 | 0.0 | 0.0 | 0.00 | 0.00 | 0.01 | 94 | 1002.9 |
| 20260509103320 | 76 | 42 | 0.0 | 0.0 | 0.00 | 0.00 | 0.01 | 94 | 1002.9 |
| 20260509103242 | 76 | 50 | 0.0 | 0.0 | 0.00 | 0.00 | 0.01 | 94 | 1002.9 |
| 20260509103120 | 76 | 37 | 0.0 | 0.0 | 0.00 | 0.00 | 0.01 | 94 | 1001.9 |
| 20260509103020 | 76 | 37 | 0.0 | 0.0 | 0.00 | 0.00 | 0.01 | 94 | 1001.9 |
| 20260509102921 | 76 | 37 | 0.0 | 0.0 | 0.00 | 0.00 | 0.01 | 94 | 1001.9 |
| 20260509102832 | 76 | 37 | 0.0 | 0.0 | 0.00 | 0.00 | 0.01 | 94 | 1001.9 |
| 20260509102728 | 76 | 37 | 0.0 | 0.0 | 0.00 | 0.00 | 0.01 | 94 | 1001.9 |
| 20260509102653 | 76 | 26 | 0.0 | 0.0 | 0.00 | 0.00 | 0.01 | 94 | 1001.9 |
| 20260509102605 | 76 | 25 | 0.0 | 0.0 | 0.00 | 0.00 | 0.01 | 94 | 1001.9 |
| 20260509102509 | 76 | 25 | 0.0 | 0.0 | 0.00 | 0.00 | 0.01 | 94 | 1001.9 |
| 20260509102410 | 76 | 25 | 0.0 | 0.0 | 0.00 | 0.00 | 0.01 | 94 | 1001.9 |
| 20260509102219 | 76 | 20 | 0.0 | 0.0 | 0.00 | 0.00 | 0.01 | 94 | 1001.9 |
| 20260509102133 | 76 | 20 | 0.0 | 0.0 | 0.00 | 0.00 | 0.01 | 94 | 1001.9 |
| 20260509102040 | 76 | 20 | 0.0 | 0.0 | 0.00 | 0.00 | 0.01 | 94 | 1001.9 |
| 20260509101936 | 76 | 45 | 0.0 | 0.0 | 0.00 | 0.00 | 0.01 | 94 | 1001.9 |
| 20260509101831 | 76 | 41 | 0.0 | 0.0 | 0.00 | 0.00 | 0.01 | 94 | 1001.9 |
| 20260509101731 | 76 | 22 | 0.0 | 0.0 | 0.00 | 0.00 | 0.01 | 94 | 1001.9 |
| 20260509101632 | 76 | 140 | 0.0 | 0.0 | 0.00 | 0.00 | 0.01 | 94 | 1001.9 |
| 20260509101526 | 76 | 36 | 0.0 | 0.0 | 0.00 | 0.00 | 0.01 | 94 | 1001.9 |
| 20260509101447 | 76 | 28 | 0.0 | 0.0 | 0.00 | 0.00 | 0.01 | 94 | 1001.9 |
| 20260509101320 | 76 | 21 | 0.0 | 0.0 | 0.00 | 0.00 | 0.01 | 94 | 1001.9 |
| 20260509101217 | 76 | 21 | 0.0 | 0.0 | 0.00 | 0.00 | 0.01 | 94 | 1001.9 |
| 20260509101142 | 76 | 21 | 0.0 | 0.0 | 0.00 | 0.00 | 0.01 | 94 | 1001.9 |
| 20260509101033 | 76 | 23 | 0.0 | 0.0 | 0.00 | 0.00 | 0.01 | 94 | 1001.9 |
| 20260509100956 | 76 | 30 | 0.0 | 0.0 | 0.00 | 0.00 | 0.01 | 94 | 1001.9 |
| 20260509100828 | 76 | 31 | 0.0 | 0.0 | 0.00 | 0.00 | 0.01 | 94 | 1001.9 |
| 20260509100721 | 76 | 29 | 0.0 | 0.0 | 0.00 | 0.00 | 0.01 | 94 | 1001.9 |
| 20260509100623 | 76 | 32 | 0.0 | 0.0 | 0.00 | 0.00 | 0.01 | 94 | 1001.9 |
| 20260509100522 | 76 | 79 | 0.0 | 0.0 | 0.00 | 0.00 | 0.01 | 94 | 1001.9 |
| 20260509100443 | 76 | 28 | 0.0 | 0.0 | 0.00 | 0.00 | 0.01 | 94 | 1001.9 |
| 20260509100319 | 76 | 34 | 0.0 | 0.0 | 0.00 | 0.00 | 0.01 | 94 | 1001.9 |
| 20260509100232 | 76 | 34 | 0.0 | 0.0 | 0.00 | 0.00 | 0.01 | 94 | 1001.9 |
| 20260509100134 | 76 | 25 | 0.0 | 0.0 | 0.00 | 0.00 | 0.01 | 94 | 1001.4 |
| 20260509100027 | 76 | 28 | 0.0 | 0.0 | 0.00 | 0.00 | 0.01 | 94 | 1001.4 |
| 20260509095948 | 76 | 28 | 0.0 | 0.0 | 0.00 | 0.00 | 0.01 | 94 | 1001.4 |
| 20260509095825 | 76 | 42 | 0.0 | 0.0 | 0.00 | 0.00 | 0.01 | 94 | 1001.4 |
| 20260509095737 | 76 | 42 | 0.0 | 0.0 | 0.00 | 0.00 | 0.01 | 94 | 1001.4 |
| 20260509095638 | 76 | 33 | 0.0 | 0.0 | 0.00 | 0.00 | 0.01 | 94 | 1001.4 |
| 20260509095531 | 76 | 30 | 0.0 | 0.0 | 0.00 | 0.00 | 0.01 | 94 | 1001.4 |
| 20260509095424 | 76 | 29 | 0.0 | 0.0 | 0.00 | 0.00 | 0.01 | 94 | 1001.4 |
| 20260509095323 | 76 | 43 | 0.0 | 0.0 | 0.00 | 0.00 | 0.01 | 94 | 1001.4 |
| 20260509095236 | 76 | 44 | 0.0 | 0.0 | 0.00 | 0.00 | 0.01 | 94 | 1001.4 |
| 20260509095156 | 76 | 44 | 0.0 | 0.0 | 0.00 | 0.00 | 0.01 | 94 | 1001.4 |
| 20260509095035 | 76 | 22 | 0.0 | 0.0 | 0.00 | 0.00 | 0.01 | 94 | 1001.4 |
| 20260509094955 | 76 | 22 | 0.0 | 0.0 | 0.00 | 0.00 | 0.01 | 94 | 1001.4 |
| 20260509094840 | 76 | 22 | 0.0 | 0.0 | 0.00 | 0.00 | 0.01 | 94 | 1001.4 |
| 20260509094752 | 76 | 20 | 0.0 | 0.0 | 0.00 | 0.00 | 0.01 | 94 | 1001.4 |
| 20260509094633 | 76 | 20 | 0.0 | 0.0 | 0.00 | 0.00 | 0.01 | 94 | 1001.4 |
| 20260509094527 | 76 | 24 | 0.0 | 0.0 | 0.00 | 0.00 | 0.01 | 94 | 1001.4 |
| 20260509094421 | 76 | 24 | 0.0 | 0.0 | 0.00 | 0.00 | 0.01 | 94 | 1001.4 |
| 20260509094322 | 76 | 24 | 0.0 | 0.0 | 0.00 | 0.00 | 0.01 | 94 | 1001.4 |
| 20260509094238 | 76 | 24 | 0.0 | 0.0 | 0.00 | 0.00 | 0.01 | 94 | 1001.4 |
| 20260509094139 | 76 | 24 | 0.0 | 0.0 | 0.00 | 0.00 | 0.01 | 94 | 1001.4 |
| 20260509094054 | 76 | 24 | 0.0 | 0.0 | 0.00 | 0.00 | 0.01 | 94 | 1001.4 |
| 20260509093935 | 76 | 32 | 0.0 | 0.0 | 0.00 | 0.00 | 0.01 | 94 | 1001.4 |
| 20260509093846 | 76 | 34 | 0.0 | 0.0 | 0.00 | 0.00 | 0.01 | 94 | 1001.4 |
| 20260509093752 | 76 | 50 | 0.0 | 0.0 | 0.00 | 0.00 | 0.01 | 94 | 1001.4 |
| 20260509093655 | 76 | 50 | 0.0 | 0.0 | 0.00 | 0.00 | 0.01 | 94 | 1001.4 |
| 20260509093543 | 76 | 50 | 0.0 | 0.0 | 0.00 | 0.00 | 0.01 | 94 | 1001.4 |
| 20260509093450 | 76 | 50 | 0.0 | 0.0 | 0.00 | 0.00 | 0.01 | 95 | 1001.4 |
| 20260509093350 | 76 | 76 | 0.0 | 0.0 | 0.00 | 0.00 | 0.01 | 94 | 1001.4 |
| 20260509093225 | 76 | 76 | 0.0 | 0.0 | 0.00 | 0.00 | 0.01 | 94 | 1001.4 |
| 20260509093146 | 76 | 27 | 0.0 | 0.0 | 0.00 | 0.00 | 0.01 | 94 | 1001.7 |
| 20260509093019 | 76 | 27 | 0.0 | 0.0 | 0.00 | 0.00 | 0.01 | 94 | 1001.7 |
| 20260509092942 | 76 | 27 | 0.0 | 0.0 | 0.00 | 0.00 | 0.01 | 94 | 1001.7 |
| 20260509092833 | 76 | 27 | 0.0 | 0.0 | 0.00 | 0.00 | 0.01 | 94 | 1001.7 |
| 20260509092725 | 76 | 27 | 0.0 | 0.0 | 0.00 | 0.00 | 0.01 | 94 | 1001.7 |
| 20260509092651 | 76 | 27 | 0.0 | 0.0 | 0.00 | 0.00 | 0.01 | 94 | 1001.7 |
| 20260509092522 | 76 | 27 | 0.0 | 0.0 | 0.00 | 0.00 | 0.01 | 94 | 1001.7 |
| 20260509092429 | 76 | 27 | 0.0 | 0.0 | 0.00 | 0.00 | 0.01 | 94 | 1001.7 |
| 20260509092350 | 76 | 27 | 0.0 | 0.0 | 0.00 | 0.00 | 0.01 | 94 | 1001.7 |
| 20260509092221 | 76 | 27 | 0.0 | 0.0 | 0.00 | 0.00 | 0.01 | 94 | 1001.7 |
| 20260509092142 | 76 | 27 | 0.0 | 0.0 | 0.00 | 0.00 | 0.01 | 94 | 1001.7 |
| 20260509092054 | 76 | 27 | 0.0 | 0.0 | 0.00 | 0.00 | 0.01 | 94 | 1001.7 |
| 20260509091939 | 76 | 27 | 0.0 | 0.0 | 0.00 | 0.00 | 0.01 | 94 | 1001.7 |
| 20260509091831 | 76 | 27 | 0.0 | 0.0 | 0.00 | 0.00 | 0.01 | 94 | 1001.7 |
| 20260509091724 | 76 | 27 | 0.0 | 0.0 | 0.00 | 0.00 | 0.01 | 94 | 1001.7 |
| 20260509091629 | 76 | 27 | 0.0 | 0.0 | 0.00 | 0.00 | 0.01 | 94 | 1001.4 |
| 20260509091520 | 76 | 27 | 0.0 | 0.0 | 0.00 | 0.00 | 0.01 | 94 | 1001.4 |
| 20260509091421 | 76 | 27 | 0.0 | 0.0 | 0.00 | 0.00 | 0.01 | 94 | 1001.4 |
| 20260509091334 | 76 | 27 | 0.0 | 0.0 | 0.00 | 0.00 | 0.01 | 94 | 1001.4 |
| 20260509091235 | 76 | 27 | 0.0 | 0.0 | 0.00 | 0.00 | 0.01 | 94 | 1001.4 |
| 20260509091133 | 76 | 29 | 0.0 | 0.0 | 0.00 | 0.00 | 0.01 | 94 | 1001.4 |
| 20260509091058 | 76 | 37 | 0.0 | 0.0 | 0.00 | 0.00 | 0.01 | 94 | 1001.4 |
| 20260509090949 | 76 | 51 | 0.0 | 0.0 | 0.00 | 0.00 | 0.01 | 94 | 1001.4 |
| 20260509090830 | 76 | 51 | 0.0 | 0.0 | 0.00 | 0.00 | 0.01 | 94 | 1001.4 |
| 20260509090727 | 76 | 52 | 0.0 | 0.0 | 0.00 | 0.00 | 0.01 | 94 | 1001.4 |
| 20260509090648 | 76 | 52 | 0.0 | 0.0 | 0.00 | 0.00 | 0.01 | 94 | 1001.4 |
| 20260509090521 | 76 | 52 | 0.0 | 0.0 | 0.00 | 0.00 | 0.01 | 94 | 1001.4 |
| 20260509090432 | 76 | 52 | 0.0 | 0.0 | 0.00 | 0.00 | 0.01 | 94 | 1001.4 |
| 20260509090353 | 76 | 52 | 0.0 | 0.0 | 0.00 | 0.00 | 0.01 | 94 | 1001.4 |
| 20260509090224 | 76 | 52 | 0.0 | 0.0 | 0.00 | 0.00 | 0.01 | 94 | 1001.4 |
| 20260509090133 | 76 | 69 | 0.0 | 0.0 | 0.00 | 0.00 | 0.01 | 94 | 1001.5 |
| 20260509090044 | 76 | 69 | 0.0 | 0.0 | 0.00 | 0.00 | 0.01 | 94 | 1001.5 |
| 20260509085934 | 76 | 69 | 0.0 | 0.0 | 0.00 | 0.00 | 0.01 | 94 | 1001.5 |
| 20260509085848 | 76 | 69 | 0.0 | 0.0 | 0.00 | 0.00 | 0.01 | 94 | 1001.5 |
| 20260509085727 | 76 | 69 | 0.0 | 0.0 | 0.00 | 0.00 | 0.01 | 94 | 1001.5 |
| 20260509085649 | 76 | 69 | 0.0 | 0.0 | 0.00 | 0.00 | 0.01 | 94 | 1001.5 |
| 20260509085522 | 76 | 88 | 0.0 | 0.0 | 0.00 | 0.00 | 0.01 | 94 | 1001.5 |
| 20260509085446 | 76 | 88 | 0.0 | 0.0 | 0.00 | 0.00 | 0.01 | 94 | 1001.5 |
| 20260509085319 | 76 | 88 | 0.0 | 0.0 | 0.00 | 0.00 | 0.01 | 94 | 1001.5 |
| 20260509085229 | 76 | 88 | 0.0 | 0.0 | 0.00 | 0.00 | 0.01 | 94 | 1001.5 |
| 20260509085133 | 76 | 88 | 0.0 | 0.0 | 0.00 | 0.00 | 0.01 | 94 | 1001.5 |
| 20260509085029 | 76 | 88 | 0.0 | 0.0 | 0.00 | 0.00 | 0.01 | 94 | 1001.5 |
| 20260509084922 | 76 | 88 | 0.0 | 0.0 | 0.00 | 0.00 | 0.01 | 94 | 1001.5 |
| 20260509084842 | 76 | 88 | 0.0 | 0.0 | 0.00 | 0.00 | 0.01 | 94 | 1001.5 |
| 20260509084743 | 76 | 88 | 0.0 | 0.0 | 0.00 | 0.00 | 0.01 | 94 | 1001.5 |
| 20260509084633 | 76 | 88 | 0.0 | 0.0 | 0.00 | 0.00 | 0.01 | 94 | 1001.4 |
| 20260509084534 | 76 | 88 | 0.0 | 0.0 | 0.00 | 0.00 | 0.01 | 94 | 1001.4 |
| 20260509084439 | 76 | 88 | 0.0 | 0.0 | 0.00 | 0.00 | 0.01 | 94 | 1001.4 |
| 20260509084335 | 76 | 88 | 0.0 | 0.0 | 0.00 | 0.00 | 0.01 | 94 | 1001.4 |
| 20260509084227 | 76 | 88 | 0.0 | 0.0 | 0.00 | 0.00 | 0.01 | 94 | 1001.4 |
| 20260509084128 | 76 | 88 | 0.0 | 0.0 | 0.00 | 0.00 | 0.01 | 94 | 1001.4 |
| 20260509084019 | 76 | 88 | 0.0 | 0.0 | 0.00 | 0.00 | 0.01 | 94 | 1001.4 |
| 20260509083944 | 76 | 88 | 0.0 | 0.0 | 0.00 | 0.00 | 0.01 | 94 | 1001.4 |
| 20260509083855 | 76 | 88 | 0.0 | 0.0 | 0.00 | 0.00 | 0.01 | 94 | 1001.4 |
| 20260509083737 | 76 | 88 | 0.0 | 0.0 | 0.00 | 0.00 | 0.01 | 94 | 1001.4 |
| 20260509083632 | 76 | 88 | 0.0 | 0.0 | 0.00 | 0.00 | 0.01 | 94 | 1001.4 |
| 20260509083532 | 76 | 88 | 0.0 | 0.0 | 0.00 | 0.00 | 0.01 | 94 | 1001.4 |
| 20260509083453 | 76 | 88 | 0.0 | 0.0 | 0.00 | 0.00 | 0.01 | 94 | 1001.4 |
| 20260509083324 | 76 | 88 | 0.0 | 0.0 | 0.00 | 0.00 | 0.01 | 94 | 1001.4 |
| 20260509083232 | 76 | 88 | 0.0 | 0.0 | 0.00 | 0.00 | 0.01 | 94 | 1001.4 |
| 20260509083126 | 76 | 88 | 0.0 | 0.0 | 0.00 | 0.00 | 0.01 | 94 | 1001.0 |
| 20260509083017 | 76 | 88 | 0.0 | 0.0 | 0.00 | 0.00 | 0.01 | 94 | 1001.0 |
| 20260509082930 | 76 | 88 | 0.0 | 0.0 | 0.00 | 0.00 | 0.01 | 94 | 1001.0 |
| 20260509082841 | 76 | 79 | 0.0 | 0.0 | 0.00 | 0.00 | 0.01 | 94 | 1001.0 |
| 20260509082722 | 76 | 98 | 0.0 | 0.0 | 0.00 | 0.00 | 0.01 | 94 | 1001.0 |
| 20260509082617 | 76 | 98 | 0.0 | 0.0 | 0.00 | 0.00 | 0.01 | 94 | 1001.0 |
| 20260509082541 | 76 | 98 | 0.0 | 0.0 | 0.00 | 0.00 | 0.01 | 94 | 1001.0 |
| 20260509082454 | 76 | 98 | 0.0 | 0.0 | 0.00 | 0.00 | 0.01 | 94 | 1001.0 |
| 20260509082333 | 76 | 98 | 0.0 | 0.0 | 0.00 | 0.00 | 0.01 | 94 | 1001.0 |
| 20260509082247 | 76 | 163 | 0.0 | 0.0 | 0.00 | 0.00 | 0.01 | 93 | 1001.0 |
| 20260509082130 | 76 | 163 | 0.0 | 0.0 | 0.00 | 0.00 | 0.01 | 93 | 1001.0 |
| 20260509082055 | 76 | 163 | 0.0 | 0.0 | 0.00 | 0.00 | 0.01 | 93 | 1001.0 |
| 20260509081928 | 76 | 163 | 0.0 | 0.0 | 0.00 | 0.00 | 0.01 | 93 | 1001.0 |
| 20260509081820 | 76 | 211 | 0.0 | 0.0 | 0.00 | 0.00 | 0.01 | 93 | 1001.0 |
| 20260509081741 | 76 | 211 | 0.0 | 0.0 | 0.00 | 0.00 | 0.01 | 93 | 1001.0 |
| 20260509081634 | 76 | 211 | 0.0 | 0.0 | 0.00 | 0.00 | 0.01 | 93 | 1001.4 |
| 20260509081558 | 76 | 211 | 0.0 | 0.0 | 0.00 | 0.00 | 0.01 | 93 | 1001.4 |
| 20260509081459 | 76 | 211 | 0.0 | 0.0 | 0.00 | 0.00 | 0.01 | 93 | 1001.4 |
| 20260509081333 | 76 | 211 | 0.0 | 0.0 | 0.00 | 0.00 | 0.01 | 93 | 1001.4 |
| 20260509081238 | 76 | 190 | 0.0 | 0.0 | 0.00 | 0.00 | 0.01 | 93 | 1001.4 |
| 20260509081133 | 76 | 194 | 0.0 | 0.0 | 0.00 | 0.00 | 0.01 | 93 | 1001.4 |
| 20260509081025 | 76 | 202 | 0.0 | 0.0 | 0.00 | 0.00 | 0.01 | 93 | 1001.4 |
| 20260509080926 | 76 | 171 | 0.0 | 0.0 | 0.00 | 0.00 | 0.01 | 93 | 1001.4 |
| 20260509080838 | 77 | 170 | 0.0 | 0.0 | 0.00 | 0.00 | 0.01 | 93 | 1001.4 |
| 20260509080739 | 77 | 159 | 0.0 | 0.0 | 0.00 | 0.00 | 0.01 | 93 | 1001.4 |
| 20260509080631 | 77 | 159 | 0.0 | 0.0 | 0.00 | 0.00 | 0.01 | 93 | 1001.4 |
| 20260509080531 | 77 | 159 | 0.0 | 0.0 | 0.00 | 0.00 | 0.01 | 93 | 1001.4 |
| 20260509080433 | 77 | 159 | 0.0 | 0.0 | 0.00 | 0.00 | 0.01 | 93 | 1001.4 |
| 20260509080328 | 77 | 159 | 0.0 | 0.0 | 0.00 | 0.00 | 0.01 | 93 | 1001.4 |
| 20260509080223 | 77 | 181 | 0.0 | 0.0 | 0.00 | 0.00 | 0.01 | 93 | 1001.4 |
| 20260509080125 | 77 | 181 | 0.0 | 0.0 | 0.00 | 0.00 | 0.01 | 93 | 1001.4 |
| 20260509080038 | 77 | 179 | 0.0 | 0.0 | 0.00 | 0.00 | 0.01 | 93 | 1001.4 |
| 20260509075938 | 77 | 179 | 0.0 | 0.0 | 0.00 | 0.00 | 0.01 | 93 | 1001.4 |
| 20260509075853 | 77 | 178 | 0.0 | 0.0 | 0.00 | 0.00 | 0.01 | 93 | 1001.4 |
| 20260509075736 | 77 | 200 | 0.0 | 0.0 | 0.00 | 0.00 | 0.01 | 93 | 1001.4 |
| 20260509075629 | 77 | 211 | 0.0 | 0.0 | 0.00 | 0.00 | 0.01 | 93 | 1001.4 |
| 20260509075521 | 77 | 157 | 0.0 | 0.0 | 0.00 | 0.00 | 0.01 | 93 | 1001.4 |
| 20260509075445 | 77 | 88 | 0.0 | 0.0 | 0.00 | 0.00 | 0.01 | 93 | 1001.4 |
| 20260509075406 | 77 | 88 | 0.0 | 0.0 | 0.00 | 0.00 | 0.01 | 93 | 1001.4 |
| 20260509075308 | 77 | 88 | 0.0 | 0.0 | 0.00 | 0.00 | 0.01 | 93 | 1001.4 |
| 20260509075200 | 77 | 102 | 0.0 | 0.0 | 0.00 | 0.00 | 0.01 | 93 | 1001.4 |
| 20260509075040 | 77 | 102 | 0.0 | 0.0 | 0.00 | 0.00 | 0.01 | 93 | 1001.4 |
| 20260509074953 | 77 | 102 | 0.0 | 0.0 | 0.00 | 0.00 | 0.01 | 93 | 1001.4 |
| 20260509074835 | 77 | 102 | 0.0 | 0.0 | 0.00 | 0.00 | 0.01 | 93 | 1001.4 |
| 20260509074748 | 77 | 102 | 0.0 | 0.0 | 0.00 | 0.00 | 0.01 | 93 | 1001.4 |
| 20260509074628 | 77 | 102 | 0.0 | 0.0 | 0.00 | 0.00 | 0.01 | 93 | 1002.2 |
| 20260509074518 | 77 | 101 | 0.0 | 0.0 | 0.00 | 0.00 | 0.01 | 93 | 1002.2 |
| 20260509074442 | 77 | 105 | 0.0 | 0.0 | 0.00 | 0.00 | 0.01 | 93 | 1002.2 |
| 20260509074332 | 77 | 88 | 0.0 | 0.0 | 0.00 | 0.00 | 0.01 | 93 | 1002.2 |
| 20260509074226 | 77 | 225 | 0.0 | 0.0 | 0.00 | 0.00 | 0.01 | 93 | 1002.2 |
| 20260509074134 | 77 | 225 | 0.0 | 0.0 | 0.00 | 0.00 | 0.01 | 92 | 1002.2 |
| 20260509074048 | 77 | 242 | 0.0 | 0.0 | 0.00 | 0.00 | 0.01 | 92 | 1002.2 |
| 20260509074009 | 77 | 242 | 0.0 | 0.0 | 0.00 | 0.00 | 0.01 | 92 | 1002.2 |
| 20260509073910 | 77 | 242 | 0.0 | 0.0 | 0.00 | 0.00 | 0.01 | 92 | 1002.2 |
| 20260509073719 | 77 | 194 | 0.0 | 0.0 | 0.00 | 0.00 | 0.01 | 92 | 1002.2 |
| 20260509073620 | 77 | 194 | 0.0 | 0.0 | 0.00 | 0.00 | 0.01 | 92 | 1002.2 |
| 20260509073526 | 77 | 194 | 0.0 | 0.0 | 0.00 | 0.00 | 0.01 | 92 | 1002.2 |
| 20260509073416 | 77 | 203 | 0.0 | 0.0 | 0.00 | 0.00 | 0.01 | 92 | 1002.2 |
| 20260509073342 | 77 | 203 | 0.0 | 0.0 | 0.00 | 0.00 | 0.01 | 92 | 1002.2 |
| 20260509073219 | 77 | 202 | 1.0 | 0.0 | 0.00 | 0.00 | 0.01 | 92 | 1002.2 |
| 20260509073132 | 77 | 178 | 1.0 | 0.0 | 0.00 | 0.00 | 0.01 | 92 | 1002.1 |
| 20260509073032 | 77 | 172 | 1.0 | 0.0 | 0.00 | 0.00 | 0.00 | 92 | 1002.1 |
| 20260509072925 | 77 | 171 | 1.0 | 0.0 | 0.00 | 0.00 | 0.00 | 92 | 1002.1 |
| 20260509072820 | 77 | 217 | 1.0 | 0.0 | 0.00 | 0.00 | 0.00 | 92 | 1002.1 |
| 20260509072741 | 77 | 210 | 1.0 | 0.0 | 0.00 | 0.00 | 0.00 | 92 | 1002.1 |
| 20260509072641 | 77 | 210 | 1.0 | 0.0 | 0.00 | 0.00 | 0.00 | 92 | 1002.1 |
| 20260509072538 | 77 | 185 | 1.0 | 0.0 | 0.00 | 0.00 | 0.00 | 92 | 1002.1 |
| 20260509072440 | 77 | 200 | 1.0 | 0.0 | 0.00 | 0.00 | 0.00 | 92 | 1002.1 |
| 20260509072330 | 77 | 223 | 1.0 | 0.0 | 0.00 | 0.00 | 0.00 | 92 | 1002.1 |
| 20260509072251 | 77 | 200 | 1.0 | 0.0 | 0.00 | 0.00 | 0.00 | 91 | 1002.1 |
| 20260509072124 | 77 | 165 | 0.0 | 0.0 | 0.00 | 0.00 | 0.00 | 91 | 1002.1 |
| 20260509072044 | 77 | 180 | 0.0 | 0.0 | 0.00 | 0.00 | 0.00 | 91 | 1002.1 |
| 20260509071957 | 77 | 169 | 0.0 | 0.0 | 0.00 | 0.00 | 0.00 | 91 | 1002.1 |
| 20260509071837 | 77 | 190 | 1.0 | 0.0 | 0.00 | 0.00 | 0.00 | 91 | 1002.1 |
| 20260509071730 | 77 | 186 | 1.0 | 0.0 | 0.00 | 0.00 | 0.00 | 91 | 1002.1 |
| 20260509071624 | 77 | 171 | 1.0 | 0.0 | 0.00 | 0.00 | 0.00 | 91 | 1002.6 |
| 20260509071525 | 77 | 194 | 1.0 | 0.0 | 0.00 | 0.00 | 0.00 | 91 | 1002.6 |
| 20260509071437 | 77 | 208 | 1.0 | 0.0 | 0.00 | 0.00 | 0.00 | 91 | 1002.6 |
| 20260509071341 | 77 | 218 | 1.0 | 0.0 | 0.00 | 0.00 | 0.00 | 91 | 1002.6 |
| 20260509071238 | 77 | 209 | 1.0 | 0.0 | 0.00 | 0.00 | 0.00 | 91 | 1002.6 |
| 20260509071159 | 77 | 180 | 1.0 | 0.0 | 0.00 | 0.00 | 0.00 | 91 | 1002.6 |
| 20260509071049 | 77 | 186 | 2.0 | 0.0 | 0.00 | 0.00 | 0.00 | 91 | 1002.6 |
| 20260509070937 | 77 | 209 | 2.0 | 0.0 | 0.00 | 0.00 | 0.00 | 91 | 1002.6 |
| 20260509070848 | 77 | 189 | 2.0 | 0.0 | 0.00 | 0.00 | 0.00 | 91 | 1002.6 |
| 20260509070727 | 77 | 196 | 2.0 | 0.0 | 0.00 | 0.00 | 0.00 | 91 | 1002.6 |
| 20260509070641 | 78 | 174 | 2.0 | 0.0 | 0.00 | 0.00 | 0.00 | 91 | 1002.6 |
| 20260509070525 | 78 | 193 | 2.0 | 0.0 | 0.00 | 0.00 | 0.00 | 91 | 1002.6 |
| 20260509070417 | 78 | 157 | 2.0 | 0.0 | 0.00 | 0.00 | 0.00 | 91 | 1002.6 |
| 20260509070341 | 78 | 192 | 2.0 | 0.0 | 0.00 | 0.00 | 0.00 | 91 | 1002.6 |
| 20260509070231 | 78 | 206 | 3.0 | 0.0 | 0.00 | 0.00 | 0.00 | 91 | 1002.6 |
| 20260509070133 | 78 | 202 | 3.0 | 0.0 | 0.00 | 0.00 | 0.00 | 91 | 1002.1 |
| 20260509070032 | 78 | 193 | 3.0 | 0.0 | 0.00 | 0.00 | 0.00 | 91 | 1002.1 |
| 20260509065927 | 78 | 147 | 3.0 | 0.0 | 0.00 | 0.00 | 0.00 | 91 | 1002.1 |
| 20260509065831 | 78 | 148 | 3.0 | 0.0 | 0.00 | 0.00 | 0.00 | 91 | 1002.1 |
| 20260509065723 | 78 | 202 | 3.0 | 0.0 | 0.00 | 0.00 | 0.00 | 91 | 1002.1 |
| 20260509065645 | 78 | 175 | 3.0 | 0.0 | 0.00 | 0.00 | 0.00 | 91 | 1002.1 |
| 20260509065557 | 78 | 204 | 2.0 | 0.0 | 0.00 | 0.00 | 0.00 | 91 | 1002.1 |
| 20260509065437 | 78 | 213 | 2.0 | 0.0 | 0.00 | 0.00 | 0.00 | 91 | 1002.1 |
| 20260509065333 | 78 | 211 | 2.0 | 0.0 | 0.00 | 0.00 | 0.00 | 91 | 1002.1 |
| 20260509065223 | 78 | 197 | 2.0 | 0.0 | 0.00 | 0.00 | 0.00 | 91 | 1002.1 |
| 20260509065126 | 78 | 231 | 2.0 | 0.0 | 0.00 | 0.00 | 0.00 | 91 | 1002.1 |
| 20260509065020 | 78 | 236 | 1.0 | 0.0 | 0.00 | 0.00 | 0.00 | 91 | 1002.1 |
| 20260509064941 | 78 | 210 | 1.0 | 0.0 | 0.00 | 0.00 | 0.00 | 91 | 1002.1 |
| 20260509064842 | 78 | 167 | 1.0 | 0.0 | 0.00 | 0.00 | 0.00 | 91 | 1002.1 |
| 20260509064750 | 78 | 184 | 1.0 | 0.0 | 0.00 | 0.00 | 0.00 | 91 | 1002.1 |
| 20260509064629 | 78 | 200 | 1.0 | 0.0 | 0.00 | 0.00 | 0.00 | 91 | 1001.7 |
| 20260509064526 | 78 | 191 | 1.0 | 0.0 | 0.00 | 0.00 | 0.00 | 91 | 1001.7 |
| 20260509064446 | 78 | 61 | 1.0 | 0.0 | 0.00 | 0.00 | 0.00 | 91 | 1001.7 |
| 20260509064321 | 78 | 208 | 1.0 | 0.0 | 0.00 | 0.00 | 0.00 | 91 | 1001.7 |
| 20260509064232 | 78 | 200 | 1.0 | 0.0 | 0.00 | 0.00 | 0.00 | 91 | 1001.7 |
| 20260509064135 | 78 | 242 | 1.0 | 0.0 | 0.00 | 0.00 | 0.00 | 91 | 1001.7 |
| 20260509064027 | 78 | 220 | 1.0 | 0.0 | 0.00 | 0.00 | 0.00 | 91 | 1001.7 |
| 20260509063919 | 78 | 164 | 1.0 | 0.0 | 0.00 | 0.00 | 0.00 | 91 | 1001.7 |
| 20260509063825 | 78 | 180 | 1.0 | 0.0 | 0.00 | 0.00 | 0.00 | 91 | 1001.7 |
| 20260509063716 | 78 | 219 | 1.0 | 0.0 | 0.00 | 0.00 | 0.00 | 91 | 1001.7 |
| 20260509063643 | 78 | 217 | 1.0 | 0.0 | 0.00 | 0.00 | 0.00 | 91 | 1001.7 |
| 20260509063558 | 78 | 124 | 1.0 | 0.0 | 0.00 | 0.00 | 0.00 | 91 | 1001.7 |
| 20260509063438 | 78 | 216 | 0.0 | 0.0 | 0.00 | 0.00 | 0.00 | 91 | 1001.7 |
| 20260509063328 | 78 | 134 | 0.0 | 0.0 | 0.00 | 0.00 | 0.00 | 91 | 1001.7 |
| 20260509063230 | 78 | 196 | 0.0 | 0.0 | 0.00 | 0.00 | 0.00 | 91 | 1001.7 |
| 20260509063146 | 78 | 143 | 0.0 | 0.0 | 0.00 | 0.00 | 0.00 | 90 | 1002.0 |
| 20260509063027 | 78 | 96 | 0.0 | 0.0 | 0.00 | 0.00 | 0.00 | 90 | 1002.0 |
| 20260509062926 | 78 | 129 | 0.0 | 0.0 | 0.00 | 0.00 | 0.00 | 90 | 1002.0 |
| 20260509062847 | 78 | 107 | 0.0 | 0.0 | 0.00 | 0.00 | 0.00 | 90 | 1002.0 |
| 20260509062719 | 78 | 113 | 0.0 | 0.0 | 0.00 | 0.00 | 0.00 | 90 | 1002.0 |
| 20260509062642 | 78 | 97 | 0.0 | 0.0 | 0.00 | 0.00 | 0.00 | 90 | 1002.0 |
| 20260509062557 | 78 | 110 | 0.0 | 0.0 | 0.00 | 0.00 | 0.00 | 90 | 1002.0 |
| 20260509062438 | 78 | 141 | 0.0 | 0.0 | 0.00 | 0.00 | 0.00 | 90 | 1002.0 |
| 20260509062331 | 78 | 101 | 0.0 | 0.0 | 0.00 | 0.00 | 0.00 | 90 | 1002.0 |
| 20260509062252 | 78 | 94 | 0.0 | 0.0 | 0.00 | 0.00 | 0.00 | 90 | 1002.0 |
| 20260509062126 | 78 | 105 | 0.0 | 0.0 | 0.00 | 0.00 | 0.00 | 90 | 1002.0 |
| 20260509062035 | 78 | 121 | 0.0 | 0.0 | 0.00 | 0.00 | 0.00 | 90 | 1002.0 |
| 20260509061924 | 78 | 133 | 0.0 | 0.0 | 0.00 | 0.00 | 0.00 | 90 | 1002.0 |
| 20260509061818 | 78 | 236 | 0.0 | 0.0 | 0.00 | 0.00 | 0.00 | 90 | 1002.0 |
| 20260509061742 | 78 | 236 | 0.0 | 0.0 | 0.00 | 0.00 | 0.00 | 90 | 1002.0 |
| 20260509061633 | 78 | 45 | 0.0 | 0.0 | 0.00 | 0.00 | 0.00 | 90 | 1001.9 |
| 20260509061529 | 78 | 45 | 0.0 | 0.0 | 0.00 | 0.00 | 0.00 | 90 | 1001.9 |
| 20260509061414 | 78 | 45 | 0.0 | 0.0 | 0.00 | 0.00 | 0.00 | 90 | 1001.9 |
| 20260509061334 | 78 | 45 | 0.0 | 0.0 | 0.00 | 0.00 | 0.00 | 90 | 1001.9 |
| 20260509061236 | 78 | 107 | 0.0 | 0.0 | 0.00 | 0.00 | 0.00 | 90 | 1001.9 |
| 20260509061127 | 78 | 107 | 0.0 | 0.0 | 0.00 | 0.00 | 0.00 | 90 | 1001.9 |
| 20260509061048 | 78 | 107 | 0.0 | 0.0 | 0.00 | 0.00 | 0.00 | 90 | 1001.9 |
| 20260509060922 | 78 | 107 | 0.0 | 0.0 | 0.00 | 0.00 | 0.00 | 90 | 1001.9 |
| 20260509060832 | 78 | 107 | 0.0 | 0.0 | 0.00 | 0.00 | 0.00 | 90 | 1001.9 |
| 20260509060738 | 78 | 107 | 0.0 | 0.0 | 0.00 | 0.00 | 0.00 | 90 | 1001.9 |
| 20260509060630 | 78 | 316 | 0.0 | 0.0 | 0.00 | 0.00 | 0.00 | 90 | 1001.9 |
| 20260509060525 | 78 | 252 | 0.0 | 0.0 | 0.00 | 0.00 | 0.00 | 90 | 1001.9 |
| 20260509060427 | 78 | 252 | 0.0 | 0.0 | 0.00 | 0.00 | 0.00 | 90 | 1001.9 |
| 20260509060317 | 78 | 252 | 0.0 | 0.0 | 0.00 | 0.00 | 0.00 | 90 | 1001.9 |
| 20260509060242 | 78 | 252 | 0.0 | 0.0 | 0.00 | 0.00 | 0.00 | 90 | 1001.9 |
| 20260509060134 | 78 | 252 | 0.0 | 0.0 | 0.00 | 0.00 | 0.00 | 90 | 1002.4 |
| 20260509060031 | 78 | 310 | 0.0 | 0.0 | 0.00 | 0.00 | 0.00 | 89 | 1002.4 |
| 20260509055935 | 78 | 257 | 0.0 | 0.0 | 0.00 | 0.00 | 0.00 | 89 | 1002.4 |
| 20260509055826 | 78 | 257 | 0.0 | 0.0 | 0.00 | 0.00 | 0.00 | 89 | 1002.4 |
| 20260509055720 | 78 | 262 | 0.0 | 0.0 | 0.00 | 0.00 | 0.00 | 89 | 1002.4 |
| 20260509055621 | 78 | 192 | 0.0 | 0.0 | 0.00 | 0.00 | 0.00 | 89 | 1002.4 |
| 20260509055537 | 78 | 175 | 0.0 | 0.0 | 0.00 | 0.00 | 0.00 | 89 | 1002.4 |
| 20260509055458 | 78 | 238 | 0.0 | 0.0 | 0.00 | 0.00 | 0.00 | 89 | 1002.4 |
| 20260509055331 | 78 | 144 | 0.0 | 0.0 | 0.00 | 0.00 | 0.00 | 89 | 1002.4 |
| 20260509055236 | 78 | 169 | 0.0 | 0.0 | 0.00 | 0.00 | 0.00 | 89 | 1002.4 |
| 20260509055130 | 78 | 198 | 0.0 | 0.0 | 0.00 | 0.00 | 0.00 | 89 | 1002.4 |
| 20260509055023 | 78 | 212 | 0.0 | 0.0 | 0.00 | 0.00 | 0.00 | 89 | 1002.4 |
| 20260509054947 | 78 | 212 | 0.0 | 0.0 | 0.00 | 0.00 | 0.00 | 89 | 1002.4 |
| 20260509054908 | 78 | 212 | 0.0 | 0.0 | 0.00 | 0.00 | 0.00 | 89 | 1002.4 |
| 20260509054717 | 78 | 212 | 0.0 | 0.0 | 0.00 | 0.00 | 0.00 | 89 | 1002.4 |
| 20260509054641 | 78 | 212 | 0.0 | 0.0 | 0.00 | 0.00 | 0.00 | 89 | 1002.5 |
| 20260509054535 | 78 | 247 | 0.0 | 0.0 | 0.00 | 0.00 | 0.00 | 89 | 1002.5 |
| 20260509054421 | 78 | 207 | 0.0 | 0.0 | 0.00 | 0.00 | 0.00 | 89 | 1002.5 |
| 20260509054337 | 78 | 207 | 0.0 | 0.0 | 0.00 | 0.00 | 0.00 | 89 | 1002.5 |
| 20260509054258 | 78 | 207 | 0.0 | 0.0 | 0.00 | 0.00 | 0.00 | 89 | 1002.5 |
| 20260509054129 | 78 | 90 | 0.0 | 0.0 | 0.00 | 0.00 | 0.00 | 89 | 1002.5 |
| 20260509054029 | 78 | 247 | 0.0 | 0.0 | 0.00 | 0.00 | 0.00 | 89 | 1002.5 |
| 20260509053923 | 78 | 119 | 0.0 | 0.0 | 0.00 | 0.00 | 0.00 | 89 | 1002.5 |
| 20260509053820 | 78 | 126 | 0.0 | 0.0 | 0.00 | 0.00 | 0.00 | 89 | 1002.5 |
| 20260509053724 | 78 | 126 | 0.0 | 0.0 | 0.00 | 0.00 | 0.00 | 89 | 1002.5 |
| 20260509053638 | 78 | 209 | 0.0 | 0.0 | 0.00 | 0.00 | 0.00 | 89 | 1002.5 |
| 20260509053540 | 78 | 186 | 0.0 | 0.0 | 0.00 | 0.00 | 0.00 | 89 | 1002.5 |
| 20260509053435 | 78 | 191 | 0.0 | 0.0 | 0.00 | 0.00 | 0.00 | 89 | 1002.5 |
| 20260509053328 | 78 | 261 | 0.0 | 0.0 | 0.00 | 0.00 | 0.00 | 89 | 1002.5 |
| 20260509053249 | 78 | 202 | 0.0 | 0.0 | 0.00 | 0.00 | 0.00 | 89 | 1002.5 |
| 20260509053126 | 78 | 169 | 0.0 | 0.0 | 0.00 | 0.00 | 0.00 | 89 | 1002.9 |
| 20260509053021 | 79 | 169 | 0.0 | 0.0 | 0.00 | 0.00 | 0.00 | 89 | 1002.9 |
| 20260509052942 | 79 | 169 | 0.0 | 0.0 | 0.00 | 0.00 | 0.00 | 89 | 1002.9 |
| 20260509052817 | 79 | 169 | 0.0 | 0.0 | 0.00 | 0.00 | 0.00 | 89 | 1002.9 |
| 20260509052732 | 79 | 169 | 0.0 | 0.0 | 0.00 | 0.00 | 0.00 | 89 | 1002.9 |
| 20260509052633 | 79 | 98 | 0.0 | 0.0 | 0.00 | 0.00 | 0.00 | 89 | 1002.9 |
| 20260509052524 | 79 | 198 | 0.0 | 0.0 | 0.00 | 0.00 | 0.00 | 88 | 1002.9 |
| 20260509052445 | 79 | 98 | 0.0 | 0.0 | 0.00 | 0.00 | 0.00 | 88 | 1002.9 |
| 20260509052317 | 79 | 88 | 0.0 | 0.0 | 0.00 | 0.00 | 0.00 | 88 | 1002.9 |
| 20260509052229 | 79 | 88 | 0.0 | 0.0 | 0.00 | 0.00 | 0.00 | 88 | 1002.9 |
| 20260509052134 | 79 | 88 | 0.0 | 0.0 | 0.00 | 0.00 | 0.00 | 88 | 1002.9 |
| 20260509052051 | 79 | 119 | 0.0 | 0.0 | 0.00 | 0.00 | 0.00 | 88 | 1002.9 |
| 20260509051937 | 79 | 119 | 0.0 | 0.0 | 0.00 | 0.00 | 0.00 | 88 | 1002.9 |
| 20260509051831 | 79 | 138 | 0.0 | 0.0 | 0.00 | 0.00 | 0.00 | 88 | 1002.9 |
| 20260509051751 | 79 | 138 | 0.0 | 0.0 | 0.00 | 0.00 | 0.04 | 88 | 1002.9 |
| 20260509051620 | 79 | 198 | 0.0 | 0.0 | 0.00 | 0.00 | 0.04 | 88 | 1002.9 |
| 20260509051541 | 79 | 235 | 0.0 | 0.0 | 0.00 | 0.00 | 0.04 | 88 | 1002.9 |
| 20260509051421 | 79 | 150 | 0.0 | 0.0 | 0.00 | 0.00 | 0.04 | 88 | 1002.9 |
| 20260509051314 | 79 | 271 | 0.0 | 0.0 | 0.00 | 0.00 | 0.04 | 87 | 1002.9 |
| 20260509051242 | 79 | 223 | 0.0 | 0.0 | 0.00 | 0.00 | 0.04 | 87 | 1002.9 |
| 20260509051134 | 79 | 138 | 0.0 | 0.0 | 0.00 | 0.00 | 0.04 | 87 | 1002.9 |
| 20260509051054 | 79 | 111 | 0.0 | 0.0 | 0.00 | 0.00 | 0.04 | 87 | 1002.9 |
| 20260509050926 | 79 | 222 | 0.0 | 0.0 | 0.00 | 0.00 | 0.04 | 87 | 1002.9 |
| 20260509050821 | 79 | 205 | 0.0 | 0.0 | 0.00 | 0.00 | 0.04 | 87 | 1002.9 |
| 20260509050721 | 79 | 184 | 0.0 | 0.0 | 0.00 | 0.00 | 0.04 | 87 | 1002.9 |
| 20260509050620 | 79 | 193 | 0.0 | 0.0 | 0.00 | 0.00 | 0.04 | 87 | 1002.9 |
| 20260509050542 | 80 | 195 | 0.0 | 0.0 | 0.00 | 0.00 | 0.04 | 87 | 1002.9 |
| 20260509050443 | 79 | 215 | 0.0 | 0.0 | 0.00 | 0.00 | 0.04 | 87 | 1002.9 |
| 20260509050318 | 80 | 215 | 0.0 | 0.0 | 0.00 | 0.00 | 0.04 | 87 | 1002.9 |
| 20260509050228 | 80 | 215 | 0.0 | 0.0 | 0.00 | 0.00 | 0.04 | 87 | 1002.9 |
| 20260509050129 | 80 | 96 | 0.0 | 0.0 | 0.00 | 0.00 | 0.04 | 87 | 1002.7 |
| 20260509050025 | 80 | 172 | 1.0 | 0.0 | 0.00 | 0.00 | 0.04 | 87 | 1002.7 |
| 20260509045945 | 80 | 172 | 1.0 | 0.0 | 0.00 | 0.00 | 0.04 | 87 | 1002.7 |
| 20260509045846 | 80 | 165 | 1.0 | 0.0 | 0.00 | 0.00 | 0.04 | 87 | 1002.7 |
| 20260509045810 | 80 | 208 | 1.0 | 0.0 | 0.00 | 0.00 | 0.04 | 86 | 1002.7 |
| 20260509045709 | 80 | 113 | 1.0 | 0.0 | 0.00 | 0.00 | 0.04 | 86 | 1002.7 |
| 20260509045518 | 80 | 160 | 0.0 | 0.0 | 0.00 | 0.00 | 0.04 | 86 | 1002.7 |
| 20260509045436 | 80 | 192 | 1.0 | 0.0 | 0.00 | 0.00 | 0.04 | 86 | 1002.7 |
| 20260509045337 | 80 | 204 | 1.0 | 0.0 | 0.00 | 0.00 | 0.04 | 86 | 1002.7 |
| 20260509045232 | 80 | 0.0 | 0.0 | 0.00 | 0.00 | 0.04 | 86 | 1002.7 | |
| 20260509045124 | 80 | 0.0 | 0.0 | 0.00 | 0.00 | 0.04 | 86 | 1002.7 | |
| 20260509045029 | 80 | 0.0 | 0.0 | 0.00 | 0.00 | 0.04 | 86 | 1002.7 | |
| 20260509044919 | 80 | 0.0 | 0.0 | 0.00 | 0.00 | 0.04 | 86 | 1002.7 | |
| 20260509044846 | 80 | 0.0 | 0.0 | 0.00 | 0.00 | 0.04 | 86 | 1002.7 | |
| 20260509044716 | 0 | 0.0 | 0.0 | 0.00 | 0.00 | 0.04 | 1002.7 | ||
| 20260509044617 | 0 | 0.0 | 0.0 | 0.00 | 0.00 | 0.04 | 1003.4 | ||
| 20260509044517 | 0 | 0.0 | 0.0 | 0.00 | 0.00 | 0.04 | 1003.4 | ||
| 20260509044443 | 0 | 0.0 | 0.0 | 0.00 | 0.00 | 0.04 | 1003.4 | ||
| 20260509044327 | 0 | 0.0 | 0.0 | 0.00 | 0.00 | 0.04 | 1003.4 | ||
| 20260509044233 | 0 | 0.0 | 0.0 | 0.00 | 0.00 | 0.04 | 1003.4 | ||
| 20260509044132 | 0 | 0.0 | 0.0 | 0.00 | 0.00 | 0.04 | 1003.4 | ||
| 20260509044032 | 0 | 0.0 | 0.0 | 0.00 | 0.00 | 0.04 | 1003.4 | ||
| 20260509043937 | 0 | 0.0 | 0.0 | 0.00 | 0.00 | 0.04 | 1003.4 | ||
| 20260509043837 | 0 | 0.0 | 0.0 | 0.00 | 0.00 | 0.04 | 1003.4 | ||
| 20260509043721 | 0 | 0.0 | 0.0 | 0.00 | 0.00 | 0.04 | 1003.4 | ||
| 20260509043627 | 0 | 0.0 | 0.0 | 0.00 | 0.00 | 0.04 | 1003.4 | ||
| 20260509043527 | 0 | 0.0 | 0.0 | 0.00 | 0.00 | 0.04 | 1003.4 | ||
| 20260509043428 | 0 | 0.0 | 0.0 | 0.00 | 0.00 | 0.04 | 1003.4 | ||
| 20260509043336 | 0 | 0.0 | 0.0 | 0.00 | 0.00 | 0.04 | 1003.4 | ||
| 20260509043234 | 81 | 0.0 | 0.0 | 0.00 | 0.00 | 0.04 | 85 | 1003.4 | |
| 20260509043118 | 81 | 0.0 | 0.0 | 0.00 | 0.00 | 0.04 | 85 | 1003.2 | |
| 20260509043018 | 81 | 0.0 | 0.0 | 0.00 | 0.00 | 0.04 | 85 | 1003.2 | |
| 20260509042919 | 81 | 0.0 | 0.0 | 0.00 | 0.00 | 0.04 | 85 | 1003.2 | |
| 20260509042844 | 81 | 210 | 1.0 | 0.0 | 0.00 | 0.00 | 0.04 | 85 | 1003.2 |
| 20260509042723 | 81 | 210 | 1.0 | 0.0 | 0.00 | 0.00 | 0.04 | 85 | 1003.2 |
| 20260509042630 | 81 | 210 | 1.0 | 0.0 | 0.00 | 0.00 | 0.04 | 85 | 1003.2 |
| 20260509042530 | 81 | 210 | 2.0 | 0.0 | 0.00 | 0.00 | 0.04 | 85 | 1003.2 |
| 20260509042433 | 81 | 210 | 1.0 | 0.0 | 0.00 | 0.00 | 0.04 | 85 | 1003.2 |
| 20260509042338 | 81 | 210 | 1.0 | 0.0 | 0.00 | 0.00 | 0.04 | 85 | 1003.2 |
| 20260509042219 | 81 | 210 | 1.0 | 0.0 | 0.00 | 0.00 | 0.04 | 85 | 1003.2 |
| 20260509042131 | 81 | 202 | 1.0 | 0.0 | 0.00 | 0.00 | 0.04 | 85 | 1003.2 |
| 20260509042032 | 81 | 193 | 1.0 | 0.0 | 0.00 | 0.00 | 0.04 | 85 | 1003.2 |
| 20260509041924 | 81 | 159 | 1.0 | 0.0 | 0.00 | 0.00 | 0.04 | 85 | 1003.2 |
| 20260509041847 | 81 | 196 | 1.0 | 0.0 | 0.00 | 0.00 | 0.04 | 85 | 1003.2 |
| 20260509041720 | 81 | 233 | 1.0 | 0.0 | 0.00 | 0.00 | 0.04 | 85 | 1003.2 |
| 20260509041644 | 81 | 186 | 1.0 | 0.0 | 0.00 | 0.00 | 0.04 | 85 | 1003.2 |
| 20260509041539 | 81 | 170 | 1.0 | 0.0 | 0.00 | 0.00 | 0.04 | 85 | 1003.0 |
| 20260509041440 | 81 | 158 | 1.0 | 0.0 | 0.00 | 0.00 | 0.04 | 85 | 1003.0 |
| 20260509041334 | 81 | 184 | 1.0 | 0.0 | 0.00 | 0.00 | 0.04 | 85 | 1003.0 |
| 20260509041225 | 81 | 193 | 1.0 | 0.0 | 0.00 | 0.00 | 0.04 | 84 | 1003.0 |
| 20260509041120 | 81 | 200 | 1.0 | 0.0 | 0.00 | 0.00 | 0.04 | 84 | 1003.0 |
| 20260509041041 | 81 | 217 | 1.0 | 0.0 | 0.00 | 0.00 | 0.04 | 84 | 1003.0 |
| 20260509040924 | 81 | 169 | 1.0 | 0.0 | 0.00 | 0.00 | 0.04 | 84 | 1003.0 |
| 20260509040839 | 81 | 217 | 1.0 | 0.0 | 0.00 | 0.00 | 0.04 | 84 | 1003.0 |
| 20260509040740 | 81 | 196 | 1.0 | 0.0 | 0.00 | 0.00 | 0.04 | 84 | 1003.0 |
| 20260509040631 | 81 | 181 | 1.0 | 0.0 | 0.00 | 0.00 | 0.04 | 84 | 1003.0 |
| 20260509040527 | 81 | 209 | 1.0 | 0.0 | 0.00 | 0.00 | 0.04 | 84 | 1003.0 |
| 20260509040427 | 81 | 221 | 1.0 | 0.0 | 0.00 | 0.00 | 0.04 | 84 | 1003.0 |
| 20260509040320 | 81 | 207 | 1.0 | 0.0 | 0.00 | 0.00 | 0.04 | 84 | 1003.0 |
| 20260509040220 | 81 | 194 | 1.0 | 0.0 | 0.00 | 0.00 | 0.04 | 84 | 1003.0 |
| 20260509040146 | 81 | 196 | 1.0 | 0.0 | 0.00 | 0.00 | 0.04 | 83 | 1003.0 |
| 20260509040018 | 81 | 174 | 1.0 | 0.0 | 0.00 | 0.00 | 0.04 | 83 | 1002.4 |
| 20260509035932 | 81 | 205 | 1.0 | 0.0 | 0.00 | 0.00 | 0.04 | 83 | 1002.4 |
| 20260509035836 | 81 | 174 | 1.0 | 0.0 | 0.00 | 0.00 | 0.04 | 84 | 1002.4 |
| 20260509035748 | 81 | 208 | 1.0 | 0.0 | 0.00 | 0.00 | 0.04 | 83 | 1002.4 |
| 20260509035646 | 81 | 207 | 1.0 | 0.0 | 0.00 | 0.00 | 0.04 | 83 | 1002.4 |
| 20260509035520 | 81 | 158 | 1.0 | 0.0 | 0.00 | 0.00 | 0.04 | 83 | 1002.4 |
| 20260509035424 | 81 | 100 | 1.0 | 0.0 | 0.00 | 0.00 | 0.04 | 83 | 1002.4 |
| 20260509035322 | 81 | 298 | 1.0 | 0.0 | 0.00 | 0.00 | 0.04 | 83 | 1002.4 |
| 20260509035241 | 81 | 182 | 1.0 | 0.0 | 0.00 | 0.00 | 0.04 | 83 | 1002.4 |
| 20260509035119 | 81 | 75 | 1.0 | 0.0 | 0.00 | 0.00 | 0.04 | 83 | 1002.4 |
| 20260509035030 | 82 | 228 | 1.0 | 0.0 | 0.00 | 0.00 | 0.04 | 83 | 1002.4 |
| 20260509034934 | 82 | 222 | 1.0 | 0.0 | 0.00 | 0.00 | 0.04 | 83 | 1002.4 |
| 20260509034826 | 82 | 176 | 1.0 | 0.0 | 0.00 | 0.00 | 0.04 | 83 | 1002.4 |
| 20260509034722 | 82 | 123 | 1.0 | 0.0 | 0.00 | 0.00 | 0.04 | 83 | 1002.4 |
| 20260509034627 | 82 | 151 | 1.0 | 0.0 | 0.00 | 0.00 | 0.04 | 83 | 1002.1 |
| 20260509034523 | 82 | 240 | 1.0 | 0.0 | 0.00 | 0.00 | 0.04 | 83 | 1002.1 |
| 20260509034444 | 82 | 229 | 1.0 | 0.0 | 0.00 | 0.00 | 0.04 | 83 | 1002.1 |
| 20260509034339 | 82 | 131 | 1.0 | 0.0 | 0.00 | 0.00 | 0.04 | 83 | 1002.1 |
| 20260509034241 | 82 | 222 | 1.0 | 0.0 | 0.00 | 0.00 | 0.04 | 83 | 1002.1 |
| 20260509034151 | 82 | 219 | 1.0 | 0.0 | 0.00 | 0.00 | 0.04 | 83 | 1002.1 |
| 20260509034034 | 82 | 209 | 1.0 | 0.0 | 0.00 | 0.00 | 0.04 | 83 | 1002.1 |
| 20260509033944 | 82 | 110 | 1.0 | 0.0 | 0.00 | 0.00 | 0.04 | 83 | 1002.1 |
| 20260509033829 | 82 | 207 | 2.0 | 0.0 | 0.00 | 0.00 | 0.04 | 83 | 1002.1 |
| 20260509033750 | 82 | 178 | 1.0 | 0.0 | 0.00 | 0.00 | 0.04 | 83 | 1002.1 |
| 20260509033620 | 82 | 187 | 1.0 | 0.0 | 0.00 | 0.00 | 0.04 | 83 | 1002.1 |
| 20260509033544 | 82 | 167 | 1.0 | 0.0 | 0.00 | 0.00 | 0.04 | 83 | 1002.1 |
| 20260509033441 | 82 | 141 | 2.0 | 0.0 | 0.00 | 0.00 | 0.04 | 83 | 1002.1 |
| 20260509033404 | 82 | 229 | 2.0 | 0.0 | 0.00 | 0.00 | 0.04 | 83 | 1002.1 |
| 20260509033253 | 82 | 182 | 2.0 | 0.0 | 0.00 | 0.00 | 0.04 | 83 | 1002.1 |
| 20260509033136 | 82 | 151 | 2.0 | 0.0 | 0.00 | 0.00 | 0.04 | 83 | 1001.9 |
| 20260509033028 | 82 | 270 | 2.0 | 0.0 | 0.00 | 0.00 | 0.04 | 83 | 1001.9 |
| 20260509032923 | 82 | 178 | 2.0 | 0.0 | 0.00 | 0.00 | 0.04 | 83 | 1001.9 |
| 20260509032825 | 82 | 215 | 2.0 | 0.0 | 0.00 | 0.00 | 0.04 | 83 | 1001.9 |
| 20260509032740 | 82 | 138 | 2.0 | 0.0 | 0.00 | 0.00 | 0.04 | 83 | 1001.9 |
| 20260509032647 | 82 | 201 | 2.0 | 0.0 | 0.00 | 0.00 | 0.04 | 83 | 1001.9 |
| 20260509032608 | 82 | 177 | 1.0 | 0.0 | 0.00 | 0.00 | 0.04 | 82 | 1001.9 |
| 20260509032419 | 82 | 232 | 1.0 | 0.0 | 0.00 | 0.00 | 0.04 | 83 | 1001.9 |
| 20260509032331 | 82 | 157 | 1.0 | 0.0 | 0.00 | 0.00 | 0.04 | 82 | 1001.9 |
| 20260509032234 | 82 | 285 | 1.0 | 0.0 | 0.00 | 0.00 | 0.04 | 82 | 1001.9 |
| 20260509032152 | 82 | 194 | 1.0 | 0.0 | 0.00 | 0.00 | 0.04 | 82 | 1001.9 |
| 20260509032038 | 82 | 147 | 1.0 | 0.0 | 0.00 | 0.00 | 0.04 | 82 | 1001.9 |
| 20260509031744 | 82 | 169 | 0.0 | 0.0 | 0.00 | 0.00 | 0.04 | 83 | 1001.9 |
| 20260509031653 | 82 | 226 | 0.0 | 0.0 | 0.00 | 0.00 | 0.04 | 83 | 1001.4 |
| 20260509031533 | 82 | 165 | 0.0 | 0.0 | 0.00 | 0.00 | 0.04 | 83 | 1001.4 |
| 20260509031434 | 82 | 185 | 0.0 | 0.0 | 0.00 | 0.00 | 0.04 | 83 | 1001.4 |
| 20260509031350 | 82 | 180 | 0.0 | 0.0 | 0.00 | 0.00 | 0.04 | 83 | 1001.4 |
| 20260509031236 | 82 | 173 | 0.0 | 0.0 | 0.00 | 0.00 | 0.04 | 83 | 1001.4 |
| 20260509031135 | 82 | 141 | 0.0 | 0.0 | 0.00 | 0.00 | 0.04 | 83 | 1001.4 |
| 20260509031035 | 82 | 106 | 0.0 | 0.0 | 0.00 | 0.00 | 0.04 | 83 | 1001.4 |
| 20260509030926 | 82 | 217 | 0.0 | 0.0 | 0.00 | 0.00 | 0.04 | 83 | 1001.4 |
| 20260509030846 | 82 | 217 | 0.0 | 0.0 | 0.00 | 0.00 | 0.04 | 83 | 1001.4 |
| 20260509030741 | 83 | 217 | 0.0 | 0.0 | 0.00 | 0.00 | 0.04 | 83 | 1001.4 |
| 20260509030702 | 83 | 222 | 0.0 | 0.0 | 0.00 | 0.00 | 0.04 | 83 | 1001.4 |
| 20260509030533 | 83 | 148 | 0.0 | 0.0 | 0.00 | 0.00 | 0.04 | 83 | 1001.4 |
| 20260509030428 | 83 | 211 | 0.0 | 0.0 | 0.00 | 0.00 | 0.04 | 83 | 1001.4 |
| 20260509030353 | 83 | 165 | 0.0 | 0.0 | 0.00 | 0.00 | 0.04 | 83 | 1001.4 |
| 20260509030227 | 83 | 252 | 0.0 | 0.0 | 0.00 | 0.00 | 0.04 | 83 | 1001.4 |
| 20260509030128 | 83 | 252 | 0.0 | 0.0 | 0.00 | 0.00 | 0.04 | 83 | 1001.4 |
| 20260509030042 | 83 | 155 | 0.0 | 0.0 | 0.00 | 0.00 | 0.04 | 83 | 1001.4 |
| 20260509025946 | 83 | 142 | 0.0 | 0.0 | 0.00 | 0.00 | 0.04 | 83 | 1001.4 |
| 20260509025846 | 83 | 188 | 0.0 | 0.0 | 0.00 | 0.00 | 0.04 | 83 | 1001.4 |
| 20260509025717 | 83 | 209 | 0.0 | 0.0 | 0.00 | 0.00 | 0.04 | 83 | 1001.4 |
| 20260509025629 | 83 | 186 | 0.0 | 0.0 | 0.00 | 0.00 | 0.04 | 83 | 1001.4 |
| 20260509025540 | 83 | 174 | 0.0 | 0.0 | 0.00 | 0.00 | 0.04 | 83 | 1001.4 |
| 20260509025432 | 83 | 188 | 0.0 | 0.0 | 0.00 | 0.00 | 0.04 | 83 | 1001.4 |
| 20260509025336 | 83 | 188 | 0.0 | 0.0 | 0.00 | 0.00 | 0.04 | 83 | 1001.4 |
| 20260509025225 | 83 | 171 | 0.0 | 0.0 | 0.00 | 0.00 | 0.04 | 83 | 1001.4 |
| 20260509025121 | 83 | 167 | 0.0 | 0.0 | 0.00 | 0.00 | 0.04 | 82 | 1001.4 |
| 20260509025024 | 83 | 200 | 0.0 | 0.0 | 0.00 | 0.00 | 0.04 | 82 | 1001.4 |
| 20260509024937 | 83 | 189 | 0.0 | 0.0 | 0.00 | 0.00 | 0.04 | 82 | 1001.4 |
| 20260509024843 | 83 | 238 | 1.0 | 0.0 | 0.00 | 0.00 | 0.04 | 82 | 1001.4 |
| 20260509024732 | 83 | 257 | 1.0 | 0.0 | 0.00 | 0.00 | 0.04 | 82 | 1001.4 |
| 20260509024653 | 83 | 221 | 1.0 | 0.0 | 0.00 | 0.00 | 0.04 | 82 | 1001.3 |
| 20260509024528 | 83 | 198 | 1.0 | 0.0 | 0.00 | 0.00 | 0.04 | 82 | 1001.3 |
| 20260509024448 | 83 | 202 | 1.0 | 0.0 | 0.00 | 0.00 | 0.04 | 82 | 1001.3 |
| 20260509024347 | 83 | 224 | 1.0 | 0.0 | 0.00 | 0.00 | 0.04 | 82 | 1001.3 |
| 20260509024220 | 83 | 250 | 1.0 | 0.0 | 0.00 | 0.00 | 0.04 | 82 | 1001.3 |
| 20260509024135 | 83 | 185 | 2.0 | 0.0 | 0.00 | 0.00 | 0.04 | 81 | 1001.3 |
| 20260509024055 | 83 | 217 | 1.0 | 0.0 | 0.00 | 0.00 | 0.04 | 81 | 1001.3 |
| 20260509023932 | 84 | 225 | 1.0 | 0.0 | 0.00 | 0.00 | 0.04 | 81 | 1001.3 |
| 20260509023832 | 84 | 248 | 1.0 | 0.0 | 0.00 | 0.00 | 0.04 | 81 | 1001.3 |
| 20260509023725 | 84 | 228 | 1.0 | 0.0 | 0.00 | 0.00 | 0.04 | 81 | 1001.3 |
| 20260509023645 | 84 | 213 | 1.0 | 0.0 | 0.00 | 0.00 | 0.04 | 81 | 1001.3 |
| 20260509023520 | 84 | 173 | 1.0 | 0.0 | 0.00 | 0.00 | 0.04 | 81 | 1001.3 |
| 20260509023431 | 84 | 216 | 1.0 | 0.0 | 0.00 | 0.00 | 0.04 | 81 | 1001.3 |
| 20260509023331 | 84 | 184 | 1.0 | 0.0 | 0.00 | 0.00 | 0.04 | 81 | 1001.3 |
| 20260509023246 | 84 | 197 | 1.0 | 0.0 | 0.00 | 0.00 | 0.04 | 81 | 1001.3 |
| 20260509023152 | 84 | 165 | 2.0 | 0.0 | 0.00 | 0.00 | 0.04 | 81 | 1001.1 |
| 20260509023021 | 84 | 163 | 2.0 | 0.0 | 0.00 | 0.00 | 0.04 | 81 | 1001.1 |
| 20260509022921 | 84 | 241 | 2.0 | 0.0 | 0.00 | 0.00 | 0.04 | 81 | 1001.1 |
| 20260509022820 | 84 | 234 | 2.0 | 0.0 | 0.00 | 0.00 | 0.04 | 81 | 1001.1 |
| 20260509022741 | 84 | 200 | 2.0 | 0.0 | 0.00 | 0.00 | 0.04 | 81 | 1001.1 |
| 20260509022632 | 84 | 184 | 2.0 | 0.0 | 0.00 | 0.00 | 0.04 | 81 | 1001.1 |
| 20260509022523 | 84 | 233 | 2.0 | 0.0 | 0.00 | 0.00 | 0.04 | 81 | 1001.1 |
| 20260509022429 | 84 | 175 | 2.0 | 0.0 | 0.00 | 0.00 | 0.04 | 80 | 1001.1 |
| 20260509022320 | 84 | 198 | 2.0 | 0.0 | 0.00 | 0.00 | 0.04 | 81 | 1001.1 |
| 20260509022247 | 84 | 189 | 2.0 | 0.0 | 0.00 | 0.00 | 0.04 | 81 | 1001.1 |
| 20260509022118 | 84 | 213 | 1.0 | 0.0 | 0.00 | 0.00 | 0.04 | 80 | 1001.1 |
| 20260509022033 | 84 | 188 | 1.0 | 0.0 | 0.00 | 0.00 | 0.04 | 80 | 1001.1 |
| 20260509021934 | 84 | 225 | 1.0 | 0.0 | 0.00 | 0.00 | 0.04 | 80 | 1001.1 |
| 20260509021825 | 84 | 126 | 1.0 | 0.0 | 0.00 | 0.00 | 0.04 | 80 | 1001.1 |
| 20260509021729 | 84 | 184 | 1.0 | 0.0 | 0.00 | 0.00 | 0.04 | 80 | 1001.1 |
| 20260509021622 | 84 | 213 | 1.0 | 0.0 | 0.00 | 0.00 | 0.04 | 80 | 1001.0 |
| 20260509021543 | 84 | 198 | 1.0 | 0.0 | 0.00 | 0.00 | 0.04 | 80 | 1001.0 |
| 20260509021434 | 85 | 221 | 0.0 | 0.0 | 0.00 | 0.00 | 0.04 | 80 | 1001.0 |
| 20260509021326 | 85 | 175 | 0.0 | 0.0 | 0.00 | 0.00 | 0.04 | 80 | 1001.0 |
| 20260509021233 | 85 | 167 | 0.0 | 0.0 | 0.00 | 0.00 | 0.04 | 81 | 1001.0 |
| 20260509021125 | 85 | 259 | 0.0 | 0.0 | 0.00 | 0.00 | 0.04 | 81 | 1001.0 |
| 20260509021045 | 85 | 236 | 0.0 | 0.0 | 0.00 | 0.00 | 0.04 | 81 | 1001.0 |
| 20260509020920 | 85 | 207 | 0.0 | 0.0 | 0.00 | 0.00 | 0.04 | 81 | 1001.0 |
| 20260509020840 | 85 | 199 | 0.0 | 0.0 | 0.00 | 0.00 | 0.04 | 81 | 1001.0 |
| 20260509020736 | 85 | 144 | 0.0 | 0.0 | 0.00 | 0.00 | 0.04 | 81 | 1001.0 |
| 20260509020628 | 85 | 213 | 0.0 | 0.0 | 0.00 | 0.00 | 0.04 | 81 | 1001.0 |
| 20260509020529 | 85 | 217 | 0.0 | 0.0 | 0.00 | 0.00 | 0.04 | 82 | 1001.0 |
| 20260509020422 | 85 | 88 | 0.0 | 0.0 | 0.00 | 0.00 | 0.04 | 82 | 1001.0 |
| 20260509020343 | 85 | 88 | 0.0 | 0.0 | 0.00 | 0.00 | 0.04 | 82 | 1001.0 |
| 20260509020243 | 85 | 87 | 0.0 | 0.0 | 0.00 | 0.00 | 0.04 | 82 | 1001.0 |
| 20260509020142 | 85 | 87 | 0.0 | 0.0 | 0.00 | 0.00 | 0.04 | 82 | 1001.0 |
| 20260509020034 | 85 | 87 | 0.0 | 0.0 | 0.00 | 0.00 | 0.04 | 82 | 1000.9 |
| 20260509015925 | 85 | 87 | 0.0 | 0.0 | 0.00 | 0.00 | 0.04 | 82 | 1000.9 |
| 20260509015833 | 85 | 69 | 0.0 | 0.0 | 0.00 | 0.00 | 0.04 | 82 | 1000.9 |
| 20260509015745 | 85 | 69 | 0.0 | 0.0 | 0.00 | 0.00 | 0.04 | 82 | 1000.9 |
| 20260509015647 | 85 | 333 | 0.0 | 0.0 | 0.00 | 0.00 | 0.04 | 82 | 1000.9 |
| 20260509015517 | 85 | 219 | 0.0 | 0.0 | 0.00 | 0.00 | 0.04 | 82 | 1000.9 |
| 20260509015424 | 85 | 219 | 0.0 | 0.0 | 0.00 | 0.00 | 0.04 | 82 | 1000.9 |
| 20260509015345 | 85 | 219 | 0.0 | 0.0 | 0.00 | 0.00 | 0.04 | 82 | 1000.9 |
| 20260509015235 | 85 | 219 | 0.0 | 0.0 | 0.00 | 0.00 | 0.04 | 82 | 1000.9 |
| 20260509015126 | 85 | 92 | 0.0 | 0.0 | 0.00 | 0.00 | 0.04 | 82 | 1000.9 |
| 20260509015047 | 85 | 92 | 0.0 | 0.0 | 0.00 | 0.00 | 0.04 | 82 | 1000.9 |
| 20260509014920 | 85 | 89 | 0.0 | 0.0 | 0.00 | 0.00 | 0.04 | 82 | 1000.9 |
| 20260509014823 | 85 | 89 | 0.0 | 0.0 | 0.00 | 0.00 | 0.04 | 82 | 1000.9 |
| 20260509014733 | 85 | 89 | 0.0 | 0.0 | 0.00 | 0.00 | 0.04 | 82 | 1000.9 |
| 20260509014637 | 85 | 89 | 0.0 | 0.0 | 0.00 | 0.00 | 0.04 | 82 | 1000.5 |
| 20260509014531 | 85 | 89 | 0.0 | 0.0 | 0.00 | 0.00 | 0.04 | 82 | 1000.5 |
| 20260509014422 | 85 | 243 | 0.0 | 0.0 | 0.00 | 0.00 | 0.04 | 82 | 1000.5 |
| 20260509014325 | 85 | 243 | 0.0 | 0.0 | 0.00 | 0.00 | 0.04 | 82 | 1000.5 |
| 20260509014237 | 85 | 243 | 0.0 | 0.0 | 0.00 | 0.00 | 0.04 | 82 | 1000.5 |
| 20260509014139 | 85 | 316 | 0.0 | 0.0 | 0.00 | 0.00 | 0.04 | 82 | 1000.5 |
| 20260509014031 | 85 | 306 | 0.0 | 0.0 | 0.00 | 0.00 | 0.04 | 82 | 1000.5 |
| 20260509013952 | 85 | 273 | 0.0 | 0.0 | 0.00 | 0.00 | 0.04 | 82 | 1000.5 |
| 20260509013828 | 85 | 273 | 0.0 | 0.0 | 0.00 | 0.00 | 0.04 | 82 | 1000.5 |
| 20260509013723 | 85 | 273 | 0.0 | 0.0 | 0.00 | 0.00 | 0.04 | 82 | 1000.5 |
| 20260509013645 | 85 | 273 | 0.0 | 0.0 | 0.00 | 0.00 | 0.04 | 82 | 1000.5 |
| 20260509013545 | 85 | 273 | 0.0 | 0.0 | 0.00 | 0.00 | 0.04 | 82 | 1000.5 |
| 20260509013437 | 85 | 273 | 0.0 | 0.0 | 0.00 | 0.00 | 0.04 | 82 | 1000.5 |
| 20260509013329 | 85 | 273 | 0.0 | 0.0 | 0.00 | 0.00 | 0.04 | 82 | 1000.5 |
| 20260509013229 | 85 | 273 | 0.0 | 0.0 | 0.00 | 0.00 | 0.04 | 81 | 1000.5 |
| 20260509013128 | 85 | 273 | 0.0 | 0.0 | 0.00 | 0.00 | 0.04 | 81 | 1000.3 |
| 20260509013021 | 85 | 273 | 0.0 | 0.0 | 0.00 | 0.00 | 0.04 | 81 | 1000.3 |
| 20260509012921 | 85 | 273 | 0.0 | 0.0 | 0.00 | 0.00 | 0.04 | 81 | 1000.3 |
| 20260509012837 | 85 | 273 | 0.0 | 0.0 | 0.00 | 0.00 | 0.04 | 81 | 1000.3 |
| 20260509012739 | 85 | 273 | 0.0 | 0.0 | 0.00 | 0.00 | 0.04 | 81 | 1000.3 |
| 20260509012633 | 85 | 273 | 0.0 | 0.0 | 0.00 | 0.00 | 0.04 | 81 | 1000.3 |
| 20260509012536 | 85 | 273 | 0.0 | 0.0 | 0.00 | 0.00 | 0.04 | 81 | 1000.3 |
| 20260509012427 | 85 | 318 | 0.0 | 0.0 | 0.00 | 0.00 | 0.04 | 81 | 1000.3 |
| 20260509012357 | 85 | 318 | 0.0 | 0.0 | 0.00 | 0.00 | 0.04 | 81 | 1000.3 |
| 20260509012234 | 85 | 318 | 0.0 | 0.0 | 0.00 | 0.00 | 0.04 | 81 | 1000.3 |
| 20260509012126 | 85 | 319 | 0.0 | 0.0 | 0.00 | 0.00 | 0.04 | 81 | 1000.3 |
| 20260509012047 | 85 | 252 | 0.0 | 0.0 | 0.00 | 0.00 | 0.04 | 81 | 1000.3 |
| 20260509011920 | 86 | 130 | 0.0 | 0.0 | 0.00 | 0.00 | 0.04 | 81 | 1000.3 |
| 20260509011821 | 86 | 207 | 0.0 | 0.0 | 0.00 | 0.00 | 0.04 | 81 | 1000.3 |
| 20260509011732 | 86 | 208 | 0.0 | 0.0 | 0.00 | 0.00 | 0.04 | 81 | 1000.3 |
| 20260509011656 | 86 | 86 | 0.0 | 0.0 | 0.00 | 0.00 | 0.04 | 80 | 1000.1 |
| 20260509011540 | 86 | 88 | 0.0 | 0.0 | 0.00 | 0.00 | 0.04 | 80 | 1000.1 |
| 20260509011430 | 86 | 88 | 0.0 | 0.0 | 0.00 | 0.00 | 0.04 | 80 | 1000.1 |
| 20260509011326 | 86 | 88 | 0.0 | 0.0 | 0.00 | 0.00 | 0.04 | 80 | 1000.1 |
| 20260509011231 | 86 | 88 | 0.0 | 0.0 | 0.00 | 0.00 | 0.04 | 80 | 1000.1 |
| 20260509011124 | 86 | 88 | 0.0 | 0.0 | 0.00 | 0.00 | 0.04 | 80 | 1000.1 |
| 20260509011027 | 86 | 88 | 0.0 | 0.0 | 0.00 | 0.00 | 0.04 | 80 | 1000.1 |
| 20260509010917 | 86 | 275 | 0.0 | 0.0 | 0.00 | 0.00 | 0.04 | 80 | 1000.1 |
| 20260509010831 | 86 | 116 | 0.0 | 0.0 | 0.00 | 0.00 | 0.04 | 80 | 1000.1 |
| 20260509010719 | 86 | 123 | 0.0 | 0.0 | 0.00 | 0.00 | 0.04 | 80 | 1000.1 |
| 20260509010634 | 86 | 240 | 0.0 | 0.0 | 0.00 | 0.00 | 0.04 | 80 | 1000.1 |
| 20260509010538 | 86 | 103 | 0.0 | 0.0 | 0.00 | 0.00 | 0.04 | 79 | 1000.1 |
| 20260509010433 | 86 | 140 | 0.0 | 0.0 | 0.00 | 0.00 | 0.04 | 79 | 1000.1 |
| 20260509010326 | 86 | 203 | 0.0 | 0.0 | 0.00 | 0.00 | 0.04 | 79 | 1000.1 |
| 20260509010227 | 86 | 203 | 0.0 | 0.0 | 0.00 | 0.00 | 0.04 | 79 | 1000.1 |
| 20260509010120 | 86 | 203 | 0.0 | 0.0 | 0.00 | 0.00 | 0.04 | 79 | 999.8 |
| 20260509010042 | 86 | 203 | 0.0 | 0.0 | 0.00 | 0.00 | 0.04 | 79 | 999.8 |
| 20260509005938 | 86 | 173 | 0.0 | 0.0 | 0.00 | 0.00 | 0.04 | 79 | 999.8 |
| 20260509005858 | 86 | 158 | 0.0 | 0.0 | 0.00 | 0.00 | 0.04 | 79 | 999.8 |
| 20260509005733 | 86 | 107 | 0.0 | 0.0 | 0.00 | 0.00 | 0.04 | 78 | 999.8 |
| 20260509005656 | 86 | 174 | 0.0 | 0.0 | 0.00 | 0.00 | 0.04 | 78 | 999.8 |
| 20260509005547 | 86 | 105 | 0.0 | 0.0 | 0.00 | 0.00 | 0.04 | 78 | 999.8 |
| 20260509005427 | 86 | 174 | 0.0 | 0.0 | 0.00 | 0.00 | 0.04 | 78 | 999.8 |
| 20260509005339 | 86 | 174 | 0.0 | 0.0 | 0.00 | 0.00 | 0.04 | 78 | 999.8 |
| 20260509005245 | 86 | 84 | 0.0 | 0.0 | 0.00 | 0.00 | 0.04 | 78 | 999.8 |
| 20260509005118 | 87 | 206 | 0.0 | 0.0 | 0.00 | 0.00 | 0.04 | 78 | 999.8 |
| 20260509005017 | 87 | 110 | 0.0 | 0.0 | 0.00 | 0.00 | 0.04 | 78 | 999.8 |
| 20260509004920 | 87 | 162 | 0.0 | 0.0 | 0.00 | 0.00 | 0.04 | 78 | 999.8 |
| 20260509004832 | 87 | 127 | 0.0 | 0.0 | 0.00 | 0.00 | 0.04 | 78 | 999.8 |
| 20260509004731 | 87 | 82 | 0.0 | 0.0 | 0.00 | 0.00 | 0.04 | 77 | 999.8 |
| 20260509004643 | 87 | 10 | 0.0 | 0.0 | 0.00 | 0.00 | 0.04 | 77 | 999.9 |
| 20260509004548 | 87 | 259 | 0.0 | 0.0 | 0.00 | 0.00 | 0.04 | 77 | 999.9 |
| 20260509004447 | 87 | 169 | 0.0 | 0.0 | 0.00 | 0.00 | 0.04 | 77 | 999.9 |
| 20260509004328 | 87 | 133 | 0.0 | 0.0 | 0.00 | 0.00 | 0.04 | 77 | 999.9 |
| 20260509004231 | 87 | 74 | 0.0 | 0.0 | 0.00 | 0.00 | 0.04 | 77 | 999.9 |
| 20260509004120 | 87 | 331 | 0.0 | 0.0 | 0.00 | 0.00 | 0.04 | 77 | 999.9 |
| 20260509004040 | 87 | 81 | 0.0 | 0.0 | 0.00 | 0.00 | 0.04 | 77 | 999.9 |
| 20260509003931 | 87 | 198 | 0.0 | 0.0 | 0.00 | 0.00 | 0.04 | 77 | 999.9 |
| 20260509003826 | 87 | 85 | 0.0 | 0.0 | 0.00 | 0.00 | 0.04 | 77 | 999.9 |
| 20260509003729 | 87 | 127 | 0.0 | 0.0 | 0.00 | 0.00 | 0.04 | 77 | 999.9 |
| 20260509003624 | 87 | 122 | 0.0 | 0.0 | 0.00 | 0.00 | 0.04 | 77 | 999.9 |
| 20260509003544 | 87 | 109 | 0.0 | 0.0 | 0.00 | 0.00 | 0.04 | 77 | 999.9 |
| 20260509003419 | 87 | 128 | 0.0 | 0.0 | 0.00 | 0.00 | 0.04 | 77 | 999.9 |
| 20260509003322 | 87 | 286 | 0.0 | 0.0 | 0.00 | 0.00 | 0.04 | 76 | 999.9 |
| 20260509003235 | 87 | 103 | 0.0 | 0.0 | 0.00 | 0.00 | 0.04 | 77 | 999.9 |
| 20260509003135 | 87 | 225 | 0.0 | 0.0 | 0.00 | 0.00 | 0.04 | 76 | 999.8 |
| 20260509003031 | 87 | 220 | 0.0 | 0.0 | 0.00 | 0.00 | 0.04 | 76 | 999.8 |
| 20260509002929 | 87 | 225 | 0.0 | 0.0 | 0.00 | 0.00 | 0.04 | 76 | 999.8 |
| 20260509002833 | 87 | 131 | 0.0 | 0.0 | 0.00 | 0.00 | 0.04 | 76 | 999.8 |
| 20260509002728 | 87 | 219 | 0.0 | 0.0 | 0.00 | 0.00 | 0.04 | 76 | 999.8 |
| 20260509002622 | 87 | 202 | 0.0 | 0.0 | 0.00 | 0.00 | 0.04 | 76 | 999.8 |
| 20260509002528 | 87 | 203 | 0.0 | 0.0 | 0.00 | 0.00 | 0.04 | 76 | 999.8 |
| 20260509002420 | 87 | 209 | 0.0 | 0.0 | 0.00 | 0.00 | 0.04 | 76 | 999.8 |
| 20260509002322 | 87 | 210 | 0.0 | 0.0 | 0.00 | 0.00 | 0.04 | 76 | 999.8 |
| 20260509002233 | 87 | 93 | 0.0 | 0.0 | 0.00 | 0.00 | 0.04 | 76 | 999.8 |
| 20260509002141 | 87 | 123 | 0.0 | 0.0 | 0.00 | 0.00 | 0.04 | 76 | 999.8 |
| 20260509002033 | 87 | 191 | 0.0 | 0.0 | 0.00 | 0.00 | 0.04 | 76 | 999.8 |
| 20260509001926 | 87 | 96 | 0.0 | 0.0 | 0.00 | 0.00 | 0.04 | 76 | 999.8 |
| 20260509001827 | 87 | 94 | 0.0 | 0.0 | 0.00 | 0.00 | 0.04 | 76 | 999.8 |
| 20260509001749 | 87 | 250 | 0.0 | 0.0 | 0.00 | 0.00 | 0.04 | 76 | 999.8 |
| 20260509001621 | 87 | 252 | 0.0 | 0.0 | 0.00 | 0.00 | 0.04 | 76 | 999.7 |
| 20260509001546 | 87 | 108 | 0.0 | 0.0 | 0.00 | 0.00 | 0.04 | 76 | 999.7 |
| 20260509001458 | 87 | 104 | 0.0 | 0.0 | 0.00 | 0.00 | 0.04 | 76 | 999.7 |
| 20260509001337 | 87 | 94 | 0.0 | 0.0 | 0.00 | 0.00 | 0.04 | 76 | 999.7 |
| 20260509001233 | 88 | 90 | 0.0 | 0.0 | 0.00 | 0.00 | 0.04 | 76 | 999.7 |
| 20260509001127 | 88 | 198 | 0.0 | 0.0 | 0.00 | 0.00 | 0.04 | 76 | 999.7 |
| 20260509001035 | 88 | 165 | 0.0 | 0.0 | 0.00 | 0.00 | 0.04 | 75 | 999.7 |
| 20260509000948 | 88 | 145 | 0.0 | 0.0 | 0.00 | 0.00 | 0.04 | 75 | 999.7 |
| 20260509000848 | 88 | 38 | 0.0 | 0.0 | 0.00 | 0.00 | 0.04 | 75 | 999.7 |
| 20260509000729 | 88 | 192 | 0.0 | 0.0 | 0.00 | 0.00 | 0.04 | 75 | 999.7 |
| 20260509000642 | 88 | 203 | 0.0 | 0.0 | 0.00 | 0.00 | 0.04 | 75 | 999.7 |
| 20260509000421 | 88 | 266 | 0.0 | 0.0 | 0.00 | 0.00 | 0.04 | 75 | 999.7 |
| 20260509000343 | 88 | 250 | 0.0 | 0.0 | 0.00 | 0.00 | 0.04 | 75 | 999.7 |
| 20260509000255 | 88 | 151 | 0.0 | 0.0 | 0.00 | 0.00 | 0.04 | 75 | 999.7 |
| 20260509000139 | 88 | 346 | 0.0 | 0.0 | 0.00 | 0.00 | 0.04 | 75 | 999.8 |
| 20260509000030 | 88 | 90 | 0.0 | 0.0 | 0.00 | 0.00 | 0.04 | 75 | 999.8 |
| 20260508235931 | 88 | 89 | 0.0 | 0.0 | 0.00 | 0.00 | 0.04 | 75 | 999.8 |
| 20260508235823 | 88 | 212 | 0.0 | 0.0 | 0.00 | 0.00 | 0.04 | 75 | 999.8 |
| 20260508235744 | 88 | 212 | 0.0 | 0.0 | 0.00 | 0.00 | 0.04 | 75 | 999.8 |
| 20260508235635 | 88 | 85 | 0.0 | 0.0 | 0.00 | 0.00 | 0.04 | 75 | 999.8 |
| 20260508235432 | 88 | 93 | 0.0 | 0.0 | 0.00 | 0.00 | 0.04 | 75 | 999.8 |
| 20260508235332 | 88 | 80 | 0.0 | 0.0 | 0.00 | 0.00 | 0.04 | 75 | 999.8 |
| 20260508235227 | 88 | 136 | 0.0 | 0.0 | 0.00 | 0.00 | 0.04 | 74 | 999.8 |
| 20260508235148 | 88 | 12 | 0.0 | 0.0 | 0.00 | 0.00 | 0.04 | 74 | 999.8 |
| 20260508235020 | 88 | 119 | 0.0 | 0.0 | 0.00 | 0.00 | 0.04 | 74 | 999.8 |
| 20260508234935 | 88 | 133 | 0.0 | 0.0 | 0.00 | 0.00 | 0.04 | 74 | 999.8 |
| 20260508234843 | 88 | 114 | 0.0 | 0.0 | 0.00 | 0.00 | 0.04 | 74 | 999.8 |
| 20260508234805 | 88 | 340 | 0.0 | 0.0 | 0.00 | 0.00 | 0.04 | 74 | 999.8 |
| 20260508234654 | 88 | 83 | 0.0 | 0.0 | 0.00 | 0.00 | 0.04 | 74 | 999.9 |
| 20260508234541 | 88 | 216 | 0.0 | 0.0 | 0.00 | 0.00 | 0.04 | 74 | 999.9 |
| 20260508234432 | 89 | 244 | 0.0 | 0.0 | 0.00 | 0.00 | 0.04 | 74 | 999.9 |
| 20260508234322 | 89 | 24 | 0.0 | 0.0 | 0.00 | 0.00 | 0.04 | 74 | 999.9 |
| 20260508234246 | 89 | 20 | 0.0 | 0.0 | 0.00 | 0.00 | 0.04 | 74 | 999.9 |
| 20260508234206 | 89 | 108 | 0.0 | 0.0 | 0.00 | 0.00 | 0.04 | 74 | 999.9 |
| 20260508234021 | 89 | 36 | 0.0 | 0.0 | 0.00 | 0.00 | 0.04 | 74 | 999.9 |
| 20260508233932 | 89 | 321 | 0.0 | 0.0 | 0.00 | 0.00 | 0.04 | 74 | 999.9 |
| 20260508233835 | 89 | 200 | 0.0 | 0.0 | 0.00 | 0.00 | 0.04 | 74 | 999.9 |
| 20260508233729 | 89 | 110 | 0.0 | 0.0 | 0.00 | 0.00 | 0.04 | 74 | 999.9 |
| 20260508233650 | 89 | 81 | 0.0 | 0.0 | 0.00 | 0.00 | 0.04 | 74 | 999.9 |
| 20260508233519 | 89 | 135 | 0.0 | 0.0 | 0.00 | 0.00 | 0.04 | 74 | 999.9 |
| 20260508233443 | 89 | 135 | 0.0 | 0.0 | 0.00 | 0.00 | 0.04 | 74 | 999.9 |
| 20260508233334 | 89 | 231 | 0.0 | 0.0 | 0.00 | 0.00 | 0.04 | 74 | 999.9 |
| 20260508233233 | 89 | 244 | 0.0 | 0.0 | 0.00 | 0.00 | 0.04 | 73 | 999.9 |
| 20260508233133 | 89 | 86 | 0.0 | 0.0 | 0.00 | 0.00 | 0.04 | 73 | 1000.3 |
| 20260508233029 | 89 | 111 | 0.0 | 0.0 | 0.00 | 0.00 | 0.04 | 74 | 1000.3 |
| 20260508232924 | 89 | 156 | 0.0 | 0.0 | 0.00 | 0.00 | 0.04 | 73 | 1000.3 |
| 20260508232824 | 89 | 163 | 0.0 | 0.0 | 0.00 | 0.00 | 0.04 | 73 | 1000.3 |
| 20260508232718 | 89 | 338 | 0.0 | 0.0 | 0.00 | 0.00 | 0.04 | 73 | 1000.3 |
| 20260508232645 | 89 | 276 | 0.0 | 0.0 | 0.00 | 0.00 | 0.04 | 73 | 1000.3 |
| 20260508232521 | 89 | 51 | 0.0 | 0.0 | 0.00 | 0.00 | 0.04 | 73 | 1000.3 |
| 20260508232433 | 89 | 51 | 0.0 | 0.0 | 0.00 | 0.00 | 0.04 | 73 | 1000.3 |
| 20260508232334 | 89 | 66 | 0.0 | 0.0 | 0.00 | 0.00 | 0.04 | 73 | 1000.3 |
| 20260508232225 | 89 | 142 | 0.0 | 0.0 | 0.00 | 0.00 | 0.04 | 73 | 1000.3 |
| 20260508232145 | 89 | 233 | 0.0 | 0.0 | 0.00 | 0.00 | 0.04 | 73 | 1000.3 |
| 20260508232020 | 89 | 146 | 0.0 | 0.0 | 0.00 | 0.00 | 0.04 | 73 | 1000.3 |
| 20260508231935 | 89 | 190 | 0.0 | 0.0 | 0.00 | 0.00 | 0.04 | 73 | 1000.3 |
| 20260508231839 | 89 | 201 | 0.0 | 0.0 | 0.00 | 0.00 | 0.04 | 73 | 1000.3 |
| 20260508231733 | 89 | 211 | 0.0 | 0.0 | 0.00 | 0.00 | 0.04 | 73 | 1000.3 |
| 20260508231624 | 89 | 211 | 0.0 | 0.0 | 0.00 | 0.00 | 0.04 | 73 | 1000.1 |
| 20260508231525 | 89 | 211 | 0.0 | 0.0 | 0.00 | 0.00 | 0.04 | 73 | 1000.1 |
| 20260508231438 | 89 | 211 | 0.0 | 0.0 | 0.00 | 0.00 | 0.04 | 72 | 1000.1 |
| 20260508231339 | 89 | 90 | 0.0 | 0.0 | 0.00 | 0.00 | 0.04 | 72 | 1000.1 |
| 20260508231250 | 89 | 226 | 0.0 | 0.0 | 0.00 | 0.00 | 0.04 | 73 | 1000.1 |
| 20260508231132 | 89 | 91 | 0.0 | 0.0 | 0.00 | 0.00 | 0.04 | 73 | 1000.1 |
| 20260508231029 | 89 | 91 | 0.0 | 0.0 | 0.00 | 0.00 | 0.04 | 73 | 1000.1 |
| 20260508230922 | 89 | 105 | 0.0 | 0.0 | 0.00 | 0.00 | 0.04 | 73 | 1000.1 |
| 20260508230843 | 89 | 93 | 0.0 | 0.0 | 0.00 | 0.00 | 0.04 | 73 | 1000.1 |
| 20260508230743 | 89 | 49 | 0.0 | 0.0 | 0.00 | 0.00 | 0.04 | 74 | 1000.1 |
| 20260508230650 | 89 | 49 | 0.0 | 0.0 | 0.00 | 0.00 | 0.04 | 74 | 1000.1 |
| 20260508230541 | 89 | 49 | 0.0 | 0.0 | 0.00 | 0.00 | 0.04 | 74 | 1000.1 |
| 20260508230432 | 89 | 50 | 0.0 | 0.0 | 0.00 | 0.00 | 0.04 | 73 | 1000.1 |
| 20260508230337 | 89 | 50 | 0.0 | 0.0 | 0.00 | 0.00 | 0.04 | 73 | 1000.1 |
| 20260508230230 | 89 | 17 | 0.0 | 0.0 | 0.00 | 0.00 | 0.04 | 74 | 1000.1 |
| 20260508230125 | 89 | 17 | 0.0 | 0.0 | 0.00 | 0.00 | 0.04 | 73 | 1000.2 |
| 20260508230029 | 89 | 55 | 0.0 | 0.0 | 0.00 | 0.00 | 0.04 | 73 | 1000.2 |
| 20260508225920 | 89 | 28 | 0.0 | 0.0 | 0.00 | 0.00 | 0.04 | 73 | 1000.2 |
| 20260508225846 | 89 | 174 | 0.0 | 0.0 | 0.00 | 0.00 | 0.04 | 73 | 1000.2 |
| 20260508225720 | 89 | 209 | 0.0 | 0.0 | 0.00 | 0.00 | 0.04 | 73 | 1000.2 |
| 20260508225630 | 89 | 209 | 0.0 | 0.0 | 0.00 | 0.00 | 0.04 | 73 | 1000.2 |
| 20260508225535 | 89 | 98 | 0.0 | 0.0 | 0.00 | 0.00 | 0.04 | 74 | 1000.2 |
| 20260508225447 | 89 | 117 | 0.0 | 0.0 | 0.00 | 0.00 | 0.04 | 74 | 1000.2 |
| 20260508225328 | 89 | 191 | 0.0 | 0.0 | 0.00 | 0.00 | 0.04 | 74 | 1000.2 |
| 20260508225220 | 89 | 236 | 0.0 | 0.0 | 0.00 | 0.00 | 0.04 | 73 | 1000.2 |
| 20260508225142 | 89 | 236 | 0.0 | 0.0 | 0.00 | 0.00 | 0.04 | 73 | 1000.2 |
| 20260508225034 | 89 | 101 | 0.0 | 0.0 | 0.00 | 0.00 | 0.04 | 74 | 1000.2 |
| 20260508224925 | 89 | 71 | 0.0 | 0.0 | 0.00 | 0.00 | 0.04 | 74 | 1000.2 |
| 20260508224828 | 89 | 20 | 0.0 | 0.0 | 0.00 | 0.00 | 0.04 | 74 | 1000.2 |
| 20260508224739 | 89 | 47 | 0.0 | 0.0 | 0.00 | 0.00 | 0.04 | 74 | 1000.2 |
| 20260508224640 | 89 | 113 | 0.0 | 0.0 | 0.00 | 0.00 | 0.04 | 74 | 1000.2 |
| 20260508224530 | 89 | 68 | 0.0 | 0.0 | 0.00 | 0.00 | 0.04 | 74 | 1000.3 |
| 20260508224426 | 88 | 219 | 0.0 | 0.0 | 0.00 | 0.00 | 0.04 | 74 | 1000.3 |
| 20260508224329 | 88 | 218 | 0.0 | 0.0 | 0.00 | 0.00 | 0.04 | 74 | 1000.3 |
| 20260508224222 | 88 | 218 | 0.0 | 0.0 | 0.00 | 0.00 | 0.04 | 75 | 1000.3 |
| 20260508224149 | 88 | 69 | 0.0 | 0.0 | 0.00 | 0.00 | 0.04 | 74 | 1000.3 |
| 20260508224024 | 88 | 115 | 0.0 | 0.0 | 0.00 | 0.00 | 0.04 | 75 | 1000.3 |
| 20260508223917 | 88 | 130 | 0.0 | 0.0 | 0.00 | 0.00 | 0.04 | 75 | 1000.3 |
| 20260508223821 | 88 | 19 | 0.0 | 0.0 | 0.00 | 0.00 | 0.04 | 75 | 1000.3 |
| 20260508223735 | 88 | 26 | 0.0 | 0.0 | 0.00 | 0.00 | 0.04 | 75 | 1000.3 |
| 20260508223639 | 88 | 11 | 0.0 | 0.0 | 0.00 | 0.00 | 0.04 | 74 | 1000.3 |
| 20260508223532 | 88 | 11 | 0.0 | 0.0 | 0.00 | 0.00 | 0.04 | 75 | 1000.3 |
| 20260508223425 | 88 | 35 | 0.0 | 0.0 | 0.00 | 0.00 | 0.04 | 74 | 1000.3 |
| 20260508223350 | 88 | 355 | 0.0 | 0.0 | 0.00 | 0.00 | 0.04 | 74 | 1000.3 |
| 20260508223228 | 88 | 43 | 0.0 | 0.0 | 0.00 | 0.00 | 0.04 | 73 | 1000.3 |
| 20260508223131 | 88 | 13 | 0.0 | 0.0 | 0.00 | 0.00 | 0.04 | 74 | 1000.3 |
| 20260508223028 | 88 | 40 | 0.0 | 0.0 | 0.00 | 0.00 | 0.04 | 74 | 1000.3 |
| 20260508222950 | 88 | 42 | 0.0 | 0.0 | 0.00 | 0.00 | 0.04 | 74 | 1000.3 |
| 20260508222820 | 88 | 153 | 0.0 | 0.0 | 0.00 | 0.00 | 0.04 | 74 | 1000.3 |
| 20260508222742 | 88 | 153 | 0.0 | 0.0 | 0.00 | 0.00 | 0.04 | 74 | 1000.3 |
| 20260508222620 | 88 | 211 | 0.0 | 0.0 | 0.00 | 0.00 | 0.04 | 74 | 1000.3 |
| 20260508222533 | 88 | 211 | 0.0 | 0.0 | 0.00 | 0.00 | 0.04 | 74 | 1000.3 |
| 20260508222433 | 88 | 211 | 0.0 | 0.0 | 0.00 | 0.00 | 0.04 | 74 | 1000.3 |
| 20260508222324 | 88 | 99 | 0.0 | 0.0 | 0.00 | 0.00 | 0.04 | 74 | 1000.3 |
| 20260508222227 | 88 | 99 | 0.0 | 0.0 | 0.00 | 0.00 | 0.04 | 74 | 1000.3 |
| 20260508222139 | 88 | 99 | 0.0 | 0.0 | 0.00 | 0.00 | 0.04 | 74 | 1000.3 |
| 20260508222040 | 88 | 99 | 0.0 | 0.0 | 0.00 | 0.00 | 0.04 | 73 | 1000.3 |
| 20260508221931 | 88 | 88 | 0.0 | 0.0 | 0.00 | 0.00 | 0.04 | 74 | 1000.3 |
| 20260508221837 | 88 | 301 | 0.0 | 0.0 | 0.00 | 0.00 | 0.04 | 73 | 1000.3 |
| 20260508221726 | 88 | 240 | 0.0 | 0.0 | 0.00 | 0.00 | 0.04 | 73 | 1000.3 |
| 20260508221623 | 88 | 119 | 0.0 | 0.0 | 0.00 | 0.00 | 0.04 | 73 | 1000.6 |
| 20260508221516 | 88 | 68 | 0.0 | 0.0 | 0.00 | 0.00 | 0.04 | 74 | 1000.6 |
| 20260508221442 | 88 | 74 | 0.0 | 0.0 | 0.00 | 0.00 | 0.04 | 74 | 1000.6 |
| 20260508221406 | 88 | 101 | 0.0 | 0.0 | 0.00 | 0.00 | 0.04 | 73 | 1000.6 |
| 20260508221236 | 88 | 88 | 0.0 | 0.0 | 0.00 | 0.00 | 0.04 | 73 | 1000.6 |
| 20260508221141 | 88 | 84 | 0.0 | 0.0 | 0.00 | 0.00 | 0.04 | 73 | 1000.6 |
| 20260508221038 | 88 | 82 | 0.0 | 0.0 | 0.00 | 0.00 | 0.04 | 73 | 1000.6 |
| 20260508221001 | 88 | 125 | 0.0 | 0.0 | 0.00 | 0.00 | 0.04 | 73 | 1000.6 |
| 20260508220835 | 88 | 325 | 0.0 | 0.0 | 0.00 | 0.00 | 0.04 | 73 | 1000.6 |
| 20260508220727 | 88 | 12 | 0.0 | 0.0 | 0.00 | 0.00 | 0.04 | 73 | 1000.6 |
| 20260508220649 | 88 | 115 | 0.0 | 0.0 | 0.00 | 0.00 | 0.04 | 74 | 1000.6 |
| 20260508220519 | 88 | 344 | 0.0 | 0.0 | 0.00 | 0.00 | 0.04 | 74 | 1000.6 |
| 20260508220421 | 88 | 131 | 0.0 | 0.0 | 0.00 | 0.00 | 0.04 | 74 | 1000.6 |
| 20260508220320 | 88 | 133 | 0.0 | 0.0 | 0.00 | 0.00 | 0.04 | 73 | 1000.6 |
| 20260508220248 | 88 | 206 | 0.0 | 0.0 | 0.00 | 0.00 | 0.04 | 73 | 1000.6 |
| 20260508220139 | 88 | 202 | 0.0 | 0.0 | 0.00 | 0.00 | 0.04 | 73 | 1000.8 |
| 20260508220039 | 88 | 201 | 0.0 | 0.0 | 0.00 | 0.00 | 0.04 | 73 | 1000.8 |
| 20260508215953 | 88 | 134 | 0.0 | 0.0 | 0.00 | 0.00 | 0.04 | 73 | 1000.8 |
| 20260508215837 | 88 | 200 | 0.0 | 0.0 | 0.00 | 0.00 | 0.04 | 73 | 1000.8 |
| 20260508215728 | 88 | 195 | 0.0 | 0.0 | 0.00 | 0.00 | 0.04 | 74 | 1000.8 |
| 20260508215648 | 88 | 244 | 0.0 | 0.0 | 0.00 | 0.00 | 0.04 | 75 | 1000.8 |
| 20260508215522 | 88 | 244 | 0.0 | 0.0 | 0.00 | 0.00 | 0.04 | 74 | 1000.8 |
| 20260508215446 | 87 | 244 | 0.0 | 0.0 | 0.00 | 0.00 | 0.04 | 74 | 1000.8 |
| 20260508215315 | 87 | 244 | 0.0 | 0.0 | 0.00 | 0.00 | 0.04 | 74 | 1000.8 |
| 20260508215242 | 87 | 243 | 0.0 | 0.0 | 0.00 | 0.00 | 0.04 | 74 | 1000.8 |
| 20260508215133 | 87 | 48 | 0.0 | 0.0 | 0.00 | 0.00 | 0.04 | 74 | 1000.8 |
| 20260508215031 | 87 | 47 | 0.0 | 0.0 | 0.00 | 0.00 | 0.04 | 74 | 1000.8 |
| 20260508214953 | 87 | 297 | 0.0 | 0.0 | 0.00 | 0.00 | 0.04 | 74 | 1000.8 |
| 20260508214900 | 87 | 298 | 0.0 | 0.0 | 0.00 | 0.00 | 0.04 | 73 | 1000.8 |
| 20260508214731 | 88 | 298 | 0.0 | 0.0 | 0.00 | 0.00 | 0.04 | 74 | 1000.8 |
| 20260508214627 | 88 | 117 | 0.0 | 0.0 | 0.00 | 0.00 | 0.04 | 74 | 1001.1 |
| 20260508214528 | 88 | 133 | 0.0 | 0.0 | 0.00 | 0.00 | 0.04 | 74 | 1001.1 |
| 20260508214420 | 88 | 185 | 0.0 | 0.0 | 0.00 | 0.00 | 0.04 | 75 | 1001.1 |
| 20260508214321 | 87 | 185 | 0.0 | 0.0 | 0.00 | 0.00 | 0.04 | 75 | 1001.1 |
| 20260508214231 | 87 | 120 | 0.0 | 0.0 | 0.00 | 0.00 | 0.04 | 74 | 1001.1 |
| 20260508214152 | 88 | 211 | 0.0 | 0.0 | 0.00 | 0.00 | 0.04 | 75 | 1001.1 |
| 20260508214050 | 88 | 244 | 0.0 | 0.0 | 0.00 | 0.00 | 0.04 | 74 | 1001.1 |
| 20260508213940 | 88 | 91 | 0.0 | 0.0 | 0.00 | 0.00 | 0.04 | 74 | 1001.1 |
| 20260508213843 | 88 | 91 | 0.0 | 0.0 | 0.00 | 0.00 | 0.04 | 74 | 1001.1 |
| 20260508213802 | 88 | 91 | 0.0 | 0.0 | 0.00 | 0.00 | 0.04 | 74 | 1001.1 |
| 20260508213152 | 88 | 95 | 0.0 | 0.0 | 0.00 | 0.00 | 0.04 | 74 | 1001.4 |
| 20260508213026 | 88 | 225 | 0.0 | 0.0 | 0.00 | 0.00 | 0.04 | 74 | 1001.4 |
| 20260508212947 | 88 | 225 | 0.0 | 0.0 | 0.00 | 0.00 | 0.04 | 74 | 1001.4 |
| 20260508212819 | 88 | 142 | 0.0 | 0.0 | 0.00 | 0.00 | 0.04 | 74 | 1001.4 |
| 20260508212747 | 88 | 200 | 0.0 | 0.0 | 0.00 | 0.00 | 0.04 | 74 | 1001.4 |
| 20260508212659 | 88 | 200 | 0.0 | 0.0 | 0.00 | 0.00 | 0.04 | 75 | 1001.4 |
| 20260508212600 | 88 | 200 | 0.0 | 0.0 | 0.00 | 0.00 | 0.04 | 75 | 1001.4 |
| 20260508212439 | 88 | 202 | 0.0 | 0.0 | 0.00 | 0.00 | 0.04 | 75 | 1001.4 |
| 20260508212350 | 88 | 202 | 0.0 | 0.0 | 0.00 | 0.00 | 0.04 | 74 | 1001.4 |
| 20260508212230 | 88 | 202 | 0.0 | 0.0 | 0.00 | 0.00 | 0.04 | 74 | 1001.4 |
| 20260508212121 | 88 | 203 | 0.0 | 0.0 | 0.00 | 0.00 | 0.04 | 74 | 1001.4 |
| 20260508212052 | 88 | 190 | 0.0 | 0.0 | 0.00 | 0.00 | 0.04 | 74 | 1001.4 |
| 20260508211953 | 88 | 175 | 0.0 | 0.0 | 0.00 | 0.00 | 0.04 | 75 | 1001.4 |
| 20260508211846 | 87 | 175 | 0.0 | 0.0 | 0.00 | 0.00 | 0.04 | 75 | 1001.4 |
| 20260508211725 | 87 | 175 | 0.0 | 0.0 | 0.00 | 0.00 | 0.04 | 75 | 1001.4 |
| 20260508211635 | 87 | 175 | 0.0 | 0.0 | 0.00 | 0.00 | 0.04 | 74 | 1001.9 |
| 20260508211542 | 87 | 165 | 0.0 | 0.0 | 0.00 | 0.00 | 0.04 | 75 | 1001.9 |
| 20260508211454 | 87 | 153 | 0.0 | 0.0 | 0.00 | 0.00 | 0.04 | 75 | 1001.9 |
| 20260508211334 | 87 | 199 | 0.0 | 0.0 | 0.00 | 0.00 | 0.04 | 75 | 1001.9 |
| 20260508211229 | 87 | 180 | 0.0 | 0.0 | 0.00 | 0.00 | 0.04 | 74 | 1001.9 |
| 20260508211124 | 87 | 194 | 0.0 | 0.0 | 0.00 | 0.00 | 0.04 | 75 | 1001.9 |
| 20260508211026 | 87 | 176 | 0.0 | 0.0 | 0.00 | 0.00 | 0.04 | 75 | 1001.9 |
| 20260508210937 | 87 | 168 | 0.0 | 0.0 | 0.00 | 0.00 | 0.04 | 75 | 1001.9 |
| 20260508210843 | 87 | 198 | 0.0 | 0.0 | 0.00 | 0.00 | 0.04 | 76 | 1001.9 |
| 20260508210742 | 87 | 40 | 0.0 | 0.0 | 0.00 | 0.00 | 0.04 | 76 | 1001.9 |
| 20260508210619 | 87 | 40 | 0.0 | 0.0 | 0.00 | 0.00 | 0.04 | 75 | 1001.9 |
| 20260508210536 | 87 | 40 | 0.0 | 0.0 | 0.00 | 0.00 | 0.04 | 75 | 1001.9 |
| 20260508210422 | 87 | 40 | 0.0 | 0.0 | 0.00 | 0.00 | 0.04 | 75 | 1001.9 |
| 20260508210340 | 87 | 40 | 0.0 | 0.0 | 0.00 | 0.00 | 0.04 | 75 | 1001.9 |
| 20260508210241 | 87 | 40 | 0.0 | 0.0 | 0.00 | 0.00 | 0.04 | 75 | 1001.9 |
| 20260508210133 | 87 | 40 | 0.0 | 0.0 | 0.00 | 0.00 | 0.04 | 75 | 1002.0 |
| 20260508210024 | 87 | 40 | 0.0 | 0.0 | 0.00 | 0.00 | 0.04 | 75 | 1002.0 |
| 20260508205924 | 87 | 40 | 0.0 | 0.0 | 0.00 | 0.00 | 0.04 | 74 | 1002.0 |
| 20260508205840 | 87 | 40 | 0.0 | 0.0 | 0.00 | 0.00 | 0.04 | 75 | 1002.0 |
| 20260508205740 | 87 | 232 | 0.0 | 0.0 | 0.00 | 0.00 | 0.04 | 75 | 1002.0 |
| 20260508205635 | 87 | 232 | 0.0 | 0.0 | 0.00 | 0.00 | 0.04 | 75 | 1002.0 |
| 20260508205530 | 87 | 232 | 0.0 | 0.0 | 0.00 | 0.00 | 0.04 | 74 | 1002.0 |
| 20260508205431 | 87 | 232 | 0.0 | 0.0 | 0.00 | 0.00 | 0.04 | 74 | 1002.0 |
| 20260508205326 | 87 | 232 | 0.0 | 0.0 | 0.00 | 0.00 | 0.04 | 75 | 1002.0 |
| 20260508205246 | 87 | 232 | 0.0 | 0.0 | 0.00 | 0.00 | 0.04 | 74 | 1002.0 |
| 20260508205117 | 88 | 232 | 0.0 | 0.0 | 0.00 | 0.00 | 0.04 | 74 | 1002.0 |
| 20260508205044 | 88 | 232 | 0.0 | 0.0 | 0.00 | 0.00 | 0.04 | 74 | 1002.0 |
| 20260508204923 | 88 | 232 | 0.0 | 0.0 | 0.00 | 0.00 | 0.04 | 74 | 1002.0 |
| 20260508204846 | 88 | 227 | 0.0 | 0.0 | 0.00 | 0.00 | 0.04 | 75 | 1002.0 |
| 20260508204738 | 88 | 202 | 0.0 | 0.0 | 0.00 | 0.00 | 0.04 | 75 | 1002.0 |
| 20260508204629 | 88 | 91 | 0.0 | 0.0 | 0.00 | 0.00 | 0.04 | 75 | 1002.4 |
| 20260508204532 | 88 | 91 | 0.0 | 0.0 | 0.00 | 0.00 | 0.04 | 75 | 1002.4 |
| 20260508204423 | 88 | 91 | 0.0 | 0.0 | 0.00 | 0.00 | 0.04 | 74 | 1002.4 |
| 20260508204345 | 88 | 91 | 0.0 | 0.0 | 0.00 | 0.00 | 0.04 | 74 | 1002.4 |
| 20260508204240 | 88 | 98 | 0.0 | 0.0 | 0.00 | 0.00 | 0.04 | 73 | 1002.4 |
| 20260508204204 | 88 | 98 | 0.0 | 0.0 | 0.00 | 0.00 | 0.04 | 74 | 1002.4 |
| 20260508204038 | 88 | 77 | 0.0 | 0.0 | 0.00 | 0.00 | 0.04 | 73 | 1002.4 |
| 20260508203944 | 88 | 77 | 0.0 | 0.0 | 0.00 | 0.00 | 0.04 | 73 | 1002.4 |
| 20260508203836 | 88 | 90 | 0.0 | 0.0 | 0.00 | 0.00 | 0.04 | 73 | 1002.4 |
| 20260508203727 | 88 | 91 | 0.0 | 0.0 | 0.00 | 0.00 | 0.04 | 74 | 1002.4 |
| 20260508203632 | 88 | 91 | 0.0 | 0.0 | 0.00 | 0.00 | 0.04 | 74 | 1002.4 |
| 20260508203523 | 88 | 91 | 1.0 | 0.0 | 0.00 | 0.00 | 0.04 | 75 | 1002.4 |
| 20260508203422 | 88 | 213 | 1.0 | 0.0 | 0.00 | 0.00 | 0.04 | 77 | 1002.4 |
| 20260508203323 | 88 | 213 | 1.0 | 0.0 | 0.00 | 0.00 | 0.04 | 76 | 1002.4 |
| 20260508203234 | 88 | 213 | 1.0 | 0.0 | 0.00 | 0.00 | 0.04 | 75 | 1002.4 |
| 20260508203135 | 88 | 213 | 1.0 | 0.0 | 0.00 | 0.00 | 0.04 | 75 | 1002.5 |
| 20260508203051 | 87 | 213 | 0.0 | 0.0 | 0.00 | 0.00 | 0.04 | 74 | 1002.5 |
| 20260508202950 | 88 | 221 | 0.0 | 0.0 | 0.00 | 0.00 | 0.04 | 75 | 1002.5 |
| 20260508202851 | 88 | 223 | 0.0 | 0.0 | 0.00 | 0.00 | 0.04 | 75 | 1002.5 |
| 20260508202722 | 88 | 223 | 0.0 | 0.0 | 0.00 | 0.00 | 0.04 | 74 | 1002.5 |
| 20260508202625 | 88 | 223 | 0.0 | 0.0 | 0.00 | 0.00 | 0.04 | 74 | 1002.5 |
| 20260508202521 | 88 | 232 | 0.0 | 0.0 | 0.00 | 0.00 | 0.04 | 74 | 1002.5 |
| 20260508202443 | 88 | 215 | 0.0 | 0.0 | 0.00 | 0.00 | 0.04 | 74 | 1002.5 |
| 20260508202335 | 88 | 228 | 0.0 | 0.0 | 0.00 | 0.00 | 0.04 | 75 | 1002.5 |
| 20260508202226 | 88 | 213 | 0.0 | 0.0 | 0.00 | 0.00 | 0.04 | 76 | 1002.5 |
| 20260508202126 | 88 | 131 | 0.0 | 0.0 | 0.00 | 0.00 | 0.04 | 76 | 1002.5 |
| 20260508202022 | 88 | 131 | 0.0 | 0.0 | 0.00 | 0.00 | 0.04 | 76 | 1002.5 |
| 20260508201944 | 88 | 198 | 0.0 | 0.0 | 0.00 | 0.00 | 0.04 | 76 | 1002.5 |
| 20260508201856 | 87 | 82 | 0.0 | 0.0 | 0.00 | 0.00 | 0.04 | 75 | 1002.5 |
| 20260508201756 | 87 | 231 | 0.0 | 0.0 | 0.00 | 0.00 | 0.04 | 76 | 1002.5 |
| 20260508201640 | 87 | 231 | 0.0 | 0.0 | 0.00 | 0.00 | 0.04 | 76 | 1002.5 |
| 20260508201530 | 87 | 231 | 0.0 | 0.0 | 0.00 | 0.00 | 0.04 | 75 | 1002.6 |
| 20260508201455 | 87 | 231 | 0.0 | 0.0 | 0.00 | 0.00 | 0.04 | 76 | 1002.6 |
| 20260508201324 | 87 | 231 | 0.0 | 0.0 | 0.00 | 0.00 | 0.04 | 76 | 1002.6 |
| 20260508201229 | 87 | 231 | 0.0 | 0.0 | 0.00 | 0.00 | 0.04 | 77 | 1002.6 |
| 20260508201140 | 87 | 231 | 0.0 | 0.0 | 0.00 | 0.00 | 0.04 | 76 | 1002.6 |
| 20260508201040 | 87 | 220 | 0.0 | 0.0 | 0.00 | 0.00 | 0.04 | 77 | 1002.6 |
| 20260508200919 | 87 | 220 | 0.0 | 0.0 | 0.00 | 0.00 | 0.04 | 76 | 1002.6 |
| 20260508200833 | 87 | 220 | 0.0 | 0.0 | 0.00 | 0.00 | 0.04 | 76 | 1002.6 |
| 20260508200733 | 87 | 210 | 0.0 | 0.0 | 0.00 | 0.00 | 0.04 | 77 | 1002.6 |
| 20260508200625 | 87 | 210 | 0.0 | 0.0 | 0.00 | 0.00 | 0.04 | 77 | 1002.6 |
| 20260508200527 | 87 | 228 | 0.0 | 0.0 | 0.00 | 0.00 | 0.04 | 76 | 1002.6 |
| 20260508200418 | 87 | 228 | 0.0 | 0.0 | 0.00 | 0.00 | 0.04 | 76 | 1002.6 |
| 20260508200343 | 87 | 228 | 0.0 | 0.0 | 0.00 | 0.00 | 0.04 | 76 | 1002.6 |
| 20260508200235 | 87 | 206 | 0.0 | 0.0 | 0.00 | 0.00 | 0.04 | 76 | 1002.6 |
| 20260508200129 | 87 | 184 | 0.0 | 0.0 | 0.00 | 0.00 | 0.04 | 76 | 1002.9 |
| 20260508200034 | 87 | 90 | 0.0 | 0.0 | 0.00 | 0.00 | 0.04 | 77 | 1002.9 |
| 20260508195927 | 87 | 30 | 0.0 | 0.0 | 0.00 | 0.00 | 0.04 | 76 | 1002.9 |
| 20260508195821 | 87 | 29 | 0.0 | 0.0 | 0.00 | 0.00 | 0.04 | 77 | 1002.9 |
| 20260508195723 | 87 | 29 | 0.0 | 0.0 | 0.00 | 0.00 | 0.04 | 77 | 1002.9 |
| 20260508195635 | 87 | 28 | 0.0 | 0.0 | 0.00 | 0.00 | 0.04 | 76 | 1002.9 |
| 20260508195539 | 87 | 28 | 0.0 | 0.0 | 0.00 | 0.00 | 0.04 | 76 | 1002.9 |
| 20260508195434 | 87 | 28 | 0.0 | 0.0 | 0.00 | 0.00 | 0.04 | 76 | 1002.9 |
| 20260508195329 | 87 | 110 | 0.0 | 0.0 | 0.00 | 0.00 | 0.04 | 77 | 1002.9 |
| 20260508195230 | 86 | 101 | 0.0 | 0.0 | 0.00 | 0.00 | 0.04 | 78 | 1002.9 |
| 20260508195145 | 86 | 109 | 0.0 | 0.0 | 0.00 | 0.00 | 0.04 | 78 | 1002.9 |
| 20260508195110 | 86 | 114 | 0.0 | 0.0 | 0.00 | 0.00 | 0.04 | 78 | 1002.9 |
| 20260508195010 | 86 | 217 | 0.0 | 0.0 | 0.00 | 0.00 | 0.04 | 77 | 1002.9 |
| 20260508194840 | 86 | 217 | 0.0 | 0.0 | 0.00 | 0.00 | 0.04 | 79 | 1002.9 |
| 20260508194742 | 86 | 180 | 0.0 | 0.0 | 0.00 | 0.00 | 0.04 | 81 | 1002.9 |
| 20260508194639 | 85 | 44 | 0.0 | 0.0 | 0.00 | 0.00 | 0.04 | 81 | 1002.9 |
| 20260508194601 | 85 | 44 | 0.0 | 0.0 | 0.00 | 0.00 | 0.04 | 80 | 1003.0 |
| 20260508194432 | 85 | 44 | 0.0 | 0.0 | 0.00 | 0.00 | 0.04 | 79 | 1003.0 |
| 20260508194324 | 85 | 44 | 0.0 | 0.0 | 0.00 | 0.00 | 0.04 | 79 | 1003.0 |
| 20260508194224 | 85 | 134 | 0.0 | 0.0 | 0.00 | 0.00 | 0.04 | 80 | 1003.0 |
| 20260508194122 | 85 | 221 | 0.0 | 0.0 | 0.00 | 0.00 | 0.04 | 80 | 1003.0 |
| 20260508194021 | 85 | 221 | 0.0 | 0.0 | 0.00 | 0.00 | 0.04 | 79 | 1003.0 |
| 20260508193934 | 85 | 221 | 0.0 | 0.0 | 0.00 | 0.00 | 0.04 | 80 | 1003.0 |
| 20260508193842 | 85 | 35 | 0.0 | 0.0 | 0.00 | 0.00 | 0.04 | 79 | 1003.0 |
| 20260508193735 | 84 | 76 | 0.0 | 0.0 | 0.00 | 0.00 | 0.04 | 80 | 1003.0 |
| 20260508193627 | 84 | 242 | 0.0 | 0.0 | 0.00 | 0.00 | 0.04 | 81 | 1003.0 |
| 20260508193547 | 84 | 23 | 0.0 | 0.0 | 0.00 | 0.00 | 0.04 | 80 | 1003.0 |
| 20260508193450 | 84 | 346 | 0.0 | 0.0 | 0.00 | 0.00 | 0.04 | 80 | 1003.0 |
| 20260508193401 | 84 | 18 | 0.0 | 0.0 | 0.00 | 0.00 | 0.04 | 80 | 1003.0 |
| 20260508193241 | 84 | 31 | 0.0 | 0.0 | 0.00 | 0.00 | 0.04 | 80 | 1003.0 |
| 20260508193134 | 84 | 31 | 0.0 | 0.0 | 0.00 | 0.00 | 0.04 | 79 | 1003.5 |
| 20260508193033 | 84 | 30 | 0.0 | 0.0 | 0.00 | 0.00 | 0.04 | 80 | 1003.5 |
| 20260508192934 | 84 | 125 | 0.0 | 0.0 | 0.00 | 0.00 | 0.04 | 80 | 1003.5 |
| 20260508192828 | 84 | 124 | 0.0 | 0.0 | 0.00 | 0.00 | 0.04 | 80 | 1003.5 |
| 20260508192749 | 84 | 128 | 0.0 | 0.0 | 0.00 | 0.00 | 0.04 | 82 | 1003.5 |
| 20260508192640 | 84 | 203 | 0.0 | 0.0 | 0.00 | 0.00 | 0.04 | 81 | 1003.5 |
| 20260508192542 | 84 | 25 | 0.0 | 0.0 | 0.00 | 0.00 | 0.04 | 80 | 1003.5 |
| 20260508192443 | 84 | 110 | 0.0 | 0.0 | 0.00 | 0.00 | 0.04 | 81 | 1003.5 |
| 20260508192336 | 84 | 109 | 0.0 | 0.0 | 0.00 | 0.00 | 0.04 | 82 | 1003.5 |
| 20260508192258 | 84 | 37 | 0.0 | 0.0 | 0.00 | 0.00 | 0.04 | 81 | 1003.5 |
| 20260508192158 | 83 | 37 | 0.0 | 0.0 | 0.00 | 0.00 | 0.04 | 82 | 1003.5 |
| 20260508192050 | 83 | 48 | 0.0 | 0.0 | 0.00 | 0.00 | 0.04 | 81 | 1003.5 |
| 20260508191933 | 83 | 48 | 0.0 | 0.0 | 0.00 | 0.00 | 0.04 | 82 | 1003.5 |
| 20260508191827 | 83 | 131 | 0.0 | 0.0 | 0.00 | 0.00 | 0.04 | 84 | 1003.5 |
| 20260508191749 | 83 | 105 | 0.0 | 0.0 | 0.00 | 0.00 | 0.04 | 84 | 1003.5 |
| 20260508191618 | 82 | 134 | 0.0 | 0.0 | 0.00 | 0.00 | 0.04 | 84 | 1003.6 |
| 20260508191521 | 82 | 41 | 0.0 | 0.0 | 0.00 | 0.00 | 0.04 | 84 | 1003.6 |
| 20260508191415 | 82 | 40 | 0.0 | 0.0 | 0.00 | 0.00 | 0.04 | 83 | 1003.6 |
| 20260508191343 | 82 | 40 | 0.0 | 0.0 | 0.00 | 0.00 | 0.04 | 83 | 1003.6 |
| 20260508191236 | 82 | 57 | 0.0 | 0.0 | 0.00 | 0.00 | 0.04 | 84 | 1003.6 |
| 20260508191140 | 81 | 347 | 0.0 | 0.0 | 0.00 | 0.00 | 0.04 | 85 | 1003.6 |
| 20260508191032 | 81 | 20 | 0.0 | 0.0 | 0.00 | 0.00 | 0.04 | 85 | 1003.6 |
| 20260508190930 | 81 | 32 | 0.0 | 0.0 | 0.00 | 0.00 | 0.04 | 85 | 1003.6 |
| 20260508190850 | 81 | 32 | 0.0 | 0.0 | 0.00 | 0.00 | 0.04 | 85 | 1003.6 |
| 20260508190756 | 81 | 28 | 0.0 | 0.0 | 0.00 | 0.00 | 0.04 | 85 | 1003.6 |
| 20260508190646 | 81 | 61 | 0.0 | 0.0 | 0.00 | 0.00 | 0.04 | 85 | 1003.6 |
| 20260508190550 | 81 | 61 | 0.0 | 0.0 | 0.00 | 0.00 | 0.04 | 85 | 1003.6 |
| 20260508190449 | 81 | 25 | 0.0 | 0.0 | 0.00 | 0.00 | 0.04 | 86 | 1003.6 |
| 20260508190409 | 80 | 26 | 0.0 | 0.0 | 0.00 | 0.00 | 0.04 | 85 | 1003.6 |
| 20260508190223 | 80 | 25 | 0.0 | 0.0 | 0.00 | 0.00 | 0.04 | 86 | 1003.6 |
| 20260508190134 | 80 | 30 | 0.0 | 0.0 | 0.00 | 0.00 | 0.04 | 86 | 1004.0 |
| 20260508190034 | 80 | 33 | 0.0 | 0.0 | 0.00 | 0.00 | 0.04 | 85 | 1004.0 |
| 20260508185926 | 80 | 40 | 0.0 | 0.0 | 0.00 | 0.00 | 0.04 | 85 | 1004.0 |
| 20260508185823 | 80 | 30 | 0.0 | 0.0 | 0.00 | 0.00 | 0.04 | 86 | 1004.0 |
| 20260508185725 | 80 | 94 | 0.0 | 0.0 | 0.00 | 0.00 | 0.04 | 86 | 1004.0 |
| 20260508185620 | 80 | 27 | 0.0 | 0.0 | 0.00 | 0.00 | 0.04 | 86 | 1004.0 |
| 20260508185548 | 80 | 27 | 0.0 | 0.0 | 0.00 | 0.00 | 0.04 | 86 | 1004.0 |
| 20260508185502 | 80 | 27 | 0.0 | 0.0 | 0.00 | 0.00 | 0.04 | 86 | 1004.0 |
| 20260508185320 | 79 | 57 | 0.0 | 0.0 | 0.00 | 0.00 | 0.04 | 87 | 1004.0 |
| 20260508185232 | 79 | 35 | 0.0 | 0.0 | 0.00 | 0.00 | 0.04 | 87 | 1004.0 |
| 20260508185134 | 79 | 37 | 0.0 | 0.0 | 0.00 | 0.00 | 0.04 | 87 | 1004.0 |
| 20260508185026 | 79 | 37 | 0.0 | 0.0 | 0.00 | 0.00 | 0.04 | 87 | 1004.0 |
| 20260508184925 | 79 | 32 | 0.0 | 0.0 | 0.00 | 0.00 | 0.04 | 87 | 1004.0 |
| 20260508184838 | 79 | 24 | 0.0 | 0.0 | 0.00 | 0.00 | 0.04 | 87 | 1004.0 |
| 20260508184738 | 79 | 31 | 0.0 | 0.0 | 0.00 | 0.00 | 0.04 | 87 | 1004.0 |
| 20260508184634 | 79 | 39 | 0.0 | 0.0 | 0.00 | 0.00 | 0.04 | 88 | 1004.1 |
| 20260508184529 | 79 | 23 | 0.0 | 0.0 | 0.00 | 0.00 | 0.04 | 87 | 1004.1 |
| 20260508184451 | 79 | 23 | 0.0 | 0.0 | 0.00 | 0.00 | 0.04 | 87 | 1004.1 |
| 20260508184330 | 79 | 13 | 0.0 | 0.0 | 0.00 | 0.00 | 0.04 | 87 | 1004.1 |
| 20260508184226 | 79 | 13 | 0.0 | 0.0 | 0.00 | 0.00 | 0.04 | 87 | 1004.1 |
| 20260508184118 | 79 | 51 | 0.0 | 0.0 | 0.00 | 0.00 | 0.04 | 87 | 1004.1 |
| 20260508184043 | 79 | 24 | 0.0 | 0.0 | 0.00 | 0.00 | 0.04 | 87 | 1004.1 |
| 20260508184004 | 79 | 121 | 0.0 | 0.0 | 0.00 | 0.00 | 0.04 | 87 | 1004.1 |
| 20260508183840 | 79 | 68 | 0.0 | 0.0 | 0.00 | 0.00 | 0.04 | 87 | 1004.1 |
| 20260508183744 | 79 | 49 | 0.0 | 0.0 | 0.00 | 0.00 | 0.04 | 87 | 1004.1 |
| 20260508183644 | 79 | 38 | 0.0 | 0.0 | 0.00 | 0.00 | 0.04 | 87 | 1004.1 |
| 20260508183537 | 79 | 16 | 0.0 | 0.0 | 0.00 | 0.00 | 0.04 | 88 | 1004.1 |
| 20260508183429 | 79 | 26 | 0.0 | 0.0 | 0.00 | 0.00 | 0.04 | 88 | 1004.1 |
| 20260508183330 | 79 | 26 | 0.0 | 0.0 | 0.00 | 0.00 | 0.04 | 87 | 1004.1 |
| 20260508183221 | 79 | 24 | 0.0 | 0.0 | 0.00 | 0.00 | 0.04 | 87 | 1004.1 |
| 20260508183142 | 79 | 30 | 0.0 | 0.0 | 0.00 | 0.00 | 0.04 | 87 | 1004.1 |
| 20260508183018 | 79 | 30 | 0.0 | 0.0 | 0.00 | 0.00 | 0.04 | 87 | 1004.4 |
| 20260508182932 | 79 | 38 | 0.0 | 0.0 | 0.00 | 0.00 | 0.04 | 87 | 1004.4 |
| 20260508182836 | 79 | 51 | 0.0 | 0.0 | 0.00 | 0.00 | 0.04 | 87 | 1004.4 |
| 20260508182752 | 79 | 26 | 0.0 | 0.0 | 0.00 | 0.00 | 0.04 | 87 | 1004.4 |
| 20260508182631 | 79 | 26 | 0.0 | 0.0 | 0.00 | 0.00 | 0.04 | 87 | 1004.4 |
| 20260508182552 | 79 | 26 | 0.0 | 0.0 | 0.00 | 0.00 | 0.04 | 87 | 1004.4 |
| 20260508182422 | 79 | 37 | 0.0 | 0.0 | 0.00 | 0.00 | 0.04 | 87 | 1004.4 |
| 20260508182346 | 79 | 37 | 0.0 | 0.0 | 0.00 | 0.00 | 0.04 | 87 | 1004.4 |
| 20260508182222 | 79 | 28 | 0.0 | 0.0 | 0.00 | 0.00 | 0.04 | 87 | 1004.4 |
| 20260508182137 | 79 | 28 | 0.0 | 0.0 | 0.00 | 0.00 | 0.04 | 87 | 1004.4 |
| 20260508182038 | 79 | 49 | 0.0 | 0.0 | 0.00 | 0.00 | 0.04 | 88 | 1004.4 |
| 20260508181930 | 79 | 50 | 0.0 | 0.0 | 0.00 | 0.00 | 0.04 | 87 | 1004.4 |
| 20260508181823 | 79 | 29 | 0.0 | 0.0 | 0.00 | 0.00 | 0.04 | 87 | 1004.4 |
| 20260508181744 | 79 | 34 | 0.0 | 0.0 | 0.00 | 0.00 | 0.04 | 87 | 1004.4 |
| 20260508181645 | 79 | 31 | 0.0 | 0.0 | 0.00 | 0.00 | 0.04 | 87 | 1004.4 |
| 20260508181538 | 79 | 31 | 0.0 | 0.0 | 0.00 | 0.00 | 0.04 | 87 | 1004.5 |
| 20260508181444 | 79 | 31 | 0.0 | 0.0 | 0.00 | 0.00 | 0.04 | 87 | 1004.5 |
| 20260508181336 | 79 | 34 | 0.0 | 0.0 | 0.00 | 0.00 | 0.04 | 87 | 1004.5 |
| 20260508181232 | 79 | 25 | 0.0 | 0.0 | 0.00 | 0.00 | 0.04 | 87 | 1004.5 |
| 20260508181123 | 79 | 38 | 0.0 | 0.0 | 0.00 | 0.00 | 0.04 | 87 | 1004.5 |
| 20260508181030 | 79 | 34 | 0.0 | 0.0 | 0.00 | 0.00 | 0.04 | 87 | 1004.5 |
| 20260508180922 | 79 | 27 | 0.0 | 0.0 | 0.00 | 0.00 | 0.04 | 87 | 1004.5 |
| 20260508180816 | 79 | 31 | 0.0 | 0.0 | 0.00 | 0.00 | 0.04 | 86 | 1004.5 |
| 20260508180727 | 79 | 36 | 0.0 | 0.0 | 0.00 | 0.00 | 0.04 | 86 | 1004.5 |
| 20260508180625 | 79 | 51 | 0.0 | 0.0 | 0.00 | 0.00 | 0.04 | 86 | 1004.5 |
| 20260508180520 | 79 | 36 | 0.0 | 0.0 | 0.00 | 0.00 | 0.04 | 86 | 1004.5 |
| 20260508180426 | 79 | 40 | 0.0 | 0.0 | 0.00 | 0.00 | 0.04 | 86 | 1004.5 |
| 20260508180347 | 79 | 40 | 0.0 | 0.0 | 0.00 | 0.00 | 0.04 | 86 | 1004.5 |
| 20260508180240 | 79 | 44 | 0.0 | 0.0 | 0.00 | 0.00 | 0.04 | 87 | 1004.5 |
| 20260508180131 | 79 | 26 | 0.0 | 0.0 | 0.00 | 0.00 | 0.04 | 87 | 1004.6 |
| 20260508180037 | 79 | 26 | 0.0 | 0.0 | 0.00 | 0.00 | 0.04 | 86 | 1004.6 |
| 20260508175929 | 79 | 30 | 0.0 | 0.0 | 0.00 | 0.00 | 0.04 | 86 | 1004.6 |
| 20260508175820 | 79 | 40 | 0.0 | 0.0 | 0.00 | 0.00 | 0.04 | 86 | 1004.6 |
| 20260508175744 | 79 | 43 | 0.0 | 0.0 | 0.00 | 0.00 | 0.04 | 86 | 1004.6 |
| 20260508175707 | 79 | 43 | 0.0 | 0.0 | 0.00 | 0.00 | 0.04 | 86 | 1004.6 |
| 20260508175517 | 79 | 55 | 0.0 | 0.0 | 0.00 | 0.00 | 0.04 | 86 | 1004.6 |
| 20260508175432 | 79 | 33 | 0.0 | 0.0 | 0.00 | 0.00 | 0.04 | 85 | 1004.6 |
| 20260508175338 | 79 | 31 | 0.0 | 0.0 | 0.00 | 0.00 | 0.04 | 85 | 1004.6 |
| 20260508175230 | 79 | 21 | 0.0 | 0.0 | 0.00 | 0.00 | 0.04 | 85 | 1004.6 |
| 20260508175121 | 79 | 38 | 0.0 | 0.0 | 0.00 | 0.00 | 0.04 | 86 | 1004.6 |
| 20260508175021 | 79 | 53 | 0.0 | 0.0 | 0.00 | 0.00 | 0.04 | 86 | 1004.6 |
| 20260508174935 | 79 | 46 | 0.0 | 0.0 | 0.00 | 0.00 | 0.04 | 86 | 1004.6 |
| 20260508174836 | 79 | 42 | 0.0 | 0.0 | 0.00 | 0.00 | 0.04 | 85 | 1004.6 |
| 20260508174730 | 79 | 46 | 0.0 | 0.0 | 0.00 | 0.00 | 0.04 | 86 | 1004.6 |
| 20260508174651 | 79 | 30 | 0.0 | 0.0 | 0.00 | 0.00 | 0.04 | 87 | 1004.9 |
| 20260508174526 | 79 | 30 | 0.0 | 0.0 | 0.00 | 0.00 | 0.04 | 86 | 1004.9 |
| 20260508174446 | 79 | 28 | 0.0 | 0.0 | 0.00 | 0.00 | 0.04 | 86 | 1004.9 |
| 20260508174337 | 79 | 45 | 0.0 | 0.0 | 0.00 | 0.00 | 0.04 | 86 | 1004.9 |
| 20260508174222 | 79 | 9 | 0.0 | 0.0 | 0.00 | 0.00 | 0.04 | 87 | 1004.9 |
| 20260508174124 | 79 | 9 | 0.0 | 0.0 | 0.00 | 0.00 | 0.04 | 87 | 1004.9 |
| 20260508174035 | 79 | 39 | 0.0 | 0.0 | 0.00 | 0.00 | 0.04 | 87 | 1004.9 |
| 20260508173935 | 79 | 46 | 0.0 | 0.0 | 0.00 | 0.00 | 0.04 | 86 | 1004.9 |
| 20260508173833 | 79 | 34 | 0.0 | 0.0 | 0.00 | 0.00 | 0.04 | 87 | 1004.9 |
| 20260508173753 | 79 | 32 | 0.0 | 0.0 | 0.00 | 0.00 | 0.04 | 88 | 1004.9 |
| 20260508173624 | 78 | 99 | 0.0 | 0.0 | 0.00 | 0.00 | 0.04 | 88 | 1004.9 |
| 20260508173544 | 78 | 99 | 0.0 | 0.0 | 0.00 | 0.00 | 0.04 | 87 | 1004.9 |
| 20260508173438 | 78 | 100 | 0.0 | 0.0 | 0.00 | 0.00 | 0.04 | 87 | 1004.9 |
| 20260508173338 | 78 | 30 | 0.0 | 0.0 | 0.00 | 0.00 | 0.04 | 87 | 1004.9 |
| 20260508173237 | 78 | 71 | 0.0 | 0.0 | 0.00 | 0.00 | 0.04 | 88 | 1004.9 |
| 20260508173127 | 78 | 32 | 0.0 | 0.0 | 0.00 | 0.00 | 0.04 | 88 | 1005.1 |
| 20260508173035 | 78 | 205 | 0.0 | 0.0 | 0.00 | 0.00 | 0.04 | 89 | 1005.1 |
| 20260508172929 | 78 | 205 | 0.0 | 0.0 | 0.00 | 0.00 | 0.04 | 89 | 1005.1 |
| 20260508172850 | 77 | 156 | 0.0 | 0.0 | 0.00 | 0.00 | 0.04 | 89 | 1005.1 |
| 20260508172721 | 77 | 19 | 0.0 | 0.0 | 0.00 | 0.00 | 0.04 | 90 | 1005.1 |
| 20260508172642 | 77 | 40 | 0.0 | 0.0 | 0.00 | 0.00 | 0.04 | 90 | 1005.1 |
| 20260508172518 | 77 | 40 | 0.0 | 0.0 | 0.00 | 0.00 | 0.04 | 90 | 1005.1 |
| 20260508172428 | 77 | 38 | 0.0 | 0.0 | 0.00 | 0.00 | 0.04 | 88 | 1005.1 |
| 20260508172334 | 77 | 22 | 0.0 | 0.0 | 0.00 | 0.00 | 0.04 | 89 | 1005.1 |
| 20260508172243 | 77 | 17 | 0.0 | 0.0 | 0.00 | 0.00 | 0.04 | 89 | 1005.1 |
| 20260508172135 | 77 | 52 | 0.0 | 0.0 | 0.00 | 0.00 | 0.04 | 89 | 1005.1 |
| 20260508172030 | 77 | 21 | 0.0 | 0.0 | 0.00 | 0.00 | 0.04 | 89 | 1005.1 |
| 20260508171932 | 77 | 21 | 0.0 | 0.0 | 0.00 | 0.00 | 0.04 | 90 | 1005.1 |
| 20260508171823 | 77 | 38 | 0.0 | 0.0 | 0.00 | 0.00 | 0.04 | 89 | 1005.1 |
| 20260508171748 | 77 | 11 | 0.0 | 0.0 | 0.00 | 0.00 | 0.04 | 89 | 1005.1 |
| 20260508171622 | 77 | 27 | 0.0 | 0.0 | 0.00 | 0.00 | 0.04 | 89 | 1005.3 |
| 20260508171539 | 77 | 22 | 0.0 | 0.0 | 0.00 | 0.00 | 0.04 | 89 | 1005.3 |
| 20260508171440 | 77 | 33 | 0.0 | 0.0 | 0.00 | 0.00 | 0.04 | 89 | 1005.3 |
| 20260508171352 | 77 | 40 | 0.0 | 0.0 | 0.00 | 0.00 | 0.04 | 89 | 1005.3 |
| 20260508171236 | 77 | 51 | 0.0 | 0.0 | 0.00 | 0.00 | 0.04 | 89 | 1005.3 |
| 20260508171129 | 77 | 40 | 0.0 | 0.0 | 0.00 | 0.00 | 0.04 | 89 | 1005.3 |
| 20260508171023 | 76 | 42 | 0.0 | 0.0 | 0.00 | 0.00 | 0.04 | 90 | 1005.3 |
| 20260508170925 | 76 | 28 | 0.0 | 0.0 | 0.00 | 0.00 | 0.04 | 90 | 1005.3 |
| 20260508170821 | 76 | 55 | 0.0 | 0.0 | 0.00 | 0.00 | 0.04 | 89 | 1005.3 |
| 20260508170745 | 76 | 28 | 0.0 | 0.0 | 0.00 | 0.00 | 0.04 | 89 | 1005.3 |
| 20260508170700 | 76 | 78 | 0.0 | 0.0 | 0.00 | 0.00 | 0.04 | 90 | 1005.3 |
| 20260508170540 | 76 | 15 | 0.0 | 0.0 | 0.00 | 0.00 | 0.04 | 90 | 1005.3 |
| 20260508170434 | 76 | 36 | 0.0 | 0.0 | 0.00 | 0.00 | 0.04 | 90 | 1005.3 |
| 20260508170334 | 76 | 37 | 0.0 | 0.0 | 0.00 | 0.00 | 0.04 | 90 | 1005.3 |
| 20260508170230 | 76 | 23 | 0.0 | 0.0 | 0.00 | 0.00 | 0.04 | 90 | 1005.3 |
| 20260508170150 | 76 | 54 | 0.0 | 0.0 | 0.00 | 0.00 | 0.04 | 89 | 1005.6 |
| 20260508170020 | 76 | 38 | 0.0 | 0.0 | 0.00 | 0.00 | 0.04 | 90 | 1005.6 |
| 20260508165948 | 76 | 24 | 0.0 | 0.0 | 0.00 | 0.00 | 0.04 | 90 | 1005.6 |
| 20260508165820 | 76 | 140 | 0.0 | 0.0 | 0.00 | 0.00 | 0.04 | 90 | 1005.6 |
| 20260508165731 | 76 | 163 | 0.0 | 0.0 | 0.00 | 0.00 | 0.04 | 90 | 1005.6 |
| 20260508165635 | 76 | 51 | 0.0 | 0.0 | 0.00 | 0.00 | 0.04 | 90 | 1005.6 |
| 20260508165532 | 76 | 51 | 0.0 | 0.0 | 0.00 | 0.00 | 0.04 | 90 | 1005.6 |
| 20260508165434 | 76 | 55 | 0.0 | 0.0 | 0.00 | 0.00 | 0.04 | 89 | 1005.6 |
| 20260508165326 | 76 | 55 | 0.0 | 0.0 | 0.00 | 0.00 | 0.04 | 89 | 1005.6 |
| 20260508165222 | 76 | 32 | 0.0 | 0.0 | 0.00 | 0.00 | 0.04 | 89 | 1005.6 |
| 20260508165123 | 76 | 46 | 0.0 | 0.0 | 0.00 | 0.00 | 0.04 | 89 | 1005.6 |
| 20260508165045 | 76 | 37 | 0.0 | 0.0 | 0.00 | 0.00 | 0.04 | 89 | 1005.6 |
| 20260508164934 | 76 | 58 | 0.0 | 0.0 | 0.00 | 0.00 | 0.04 | 89 | 1005.6 |
| 20260508164828 | 76 | 45 | 0.0 | 0.0 | 0.00 | 0.00 | 0.04 | 89 | 1005.6 |
| 20260508164718 | 76 | 55 | 0.0 | 0.0 | 0.00 | 0.00 | 0.04 | 90 | 1005.6 |
| 20260508164623 | 76 | 46 | 0.0 | 0.0 | 0.00 | 0.00 | 0.04 | 91 | 1005.7 |
| 20260508164546 | 76 | 46 | 0.0 | 0.0 | 0.00 | 0.00 | 0.04 | 91 | 1005.7 |
| 20260508164420 | 76 | 52 | 0.0 | 0.0 | 0.00 | 0.00 | 0.04 | 91 | 1005.7 |
| 20260508164331 | 75 | 101 | 0.0 | 0.0 | 0.00 | 0.00 | 0.04 | 91 | 1005.7 |
| 20260508164233 | 75 | 39 | 0.0 | 0.0 | 0.00 | 0.00 | 0.04 | 91 | 1005.7 |
| 20260508164125 | 75 | 40 | 0.0 | 0.0 | 0.00 | 0.00 | 0.04 | 91 | 1005.7 |
| 20260508164047 | 75 | 40 | 0.0 | 0.0 | 0.00 | 0.00 | 0.04 | 92 | 1005.7 |
| 20260508163958 | 75 | 40 | 0.0 | 0.0 | 0.00 | 0.00 | 0.04 | 92 | 1005.7 |
| 20260508163841 | 75 | 23 | 0.0 | 0.0 | 0.00 | 0.00 | 0.04 | 91 | 1005.7 |
| 20260508163740 | 75 | 29 | 0.0 | 0.0 | 0.00 | 0.00 | 0.04 | 91 | 1005.7 |
| 20260508163703 | 74 | 67 | 0.0 | 0.0 | 0.00 | 0.00 | 0.04 | 92 | 1005.7 |
| 20260508163559 | 74 | 57 | 0.0 | 0.0 | 0.00 | 0.00 | 0.04 | 92 | 1005.7 |
| 20260508163439 | 74 | 41 | 0.0 | 0.0 | 0.00 | 0.00 | 0.04 | 92 | 1005.7 |
| 20260508163332 | 74 | 48 | 0.0 | 0.0 | 0.00 | 0.00 | 0.04 | 92 | 1005.7 |
| 20260508163225 | 74 | 26 | 0.0 | 0.0 | 0.00 | 0.00 | 0.04 | 92 | 1005.7 |
| 20260508163125 | 74 | 96 | 0.0 | 0.0 | 0.00 | 0.00 | 0.04 | 92 | 1005.9 |
| 20260508163038 | 74 | 36 | 0.0 | 0.0 | 0.00 | 0.00 | 0.04 | 92 | 1005.9 |
| 20260508162944 | 74 | 39 | 0.0 | 0.0 | 0.00 | 0.00 | 0.04 | 92 | 1005.9 |
| 20260508162819 | 74 | 28 | 0.0 | 0.0 | 0.00 | 0.00 | 0.04 | 92 | 1005.9 |
| 20260508162731 | 74 | 38 | 0.0 | 0.0 | 0.00 | 0.00 | 0.04 | 93 | 1005.9 |
| 20260508162636 | 74 | 54 | 0.0 | 0.0 | 0.00 | 0.00 | 0.04 | 92 | 1005.9 |
| 20260508162529 | 73 | 37 | 0.0 | 0.0 | 0.00 | 0.00 | 0.04 | 92 | 1005.9 |
| 20260508162424 | 73 | 40 | 0.0 | 0.0 | 0.00 | 0.00 | 0.04 | 92 | 1005.9 |
| 20260508162325 | 73 | 31 | 0.0 | 0.0 | 0.00 | 0.00 | 0.04 | 92 | 1005.9 |
| 20260508162224 | 73 | 62 | 0.0 | 0.0 | 0.00 | 0.00 | 0.04 | 93 | 1005.9 |
| 20260508162148 | 73 | 24 | 0.0 | 0.0 | 0.00 | 0.00 | 0.04 | 93 | 1005.9 |
| 20260508162039 | 73 | 40 | 0.0 | 0.0 | 0.00 | 0.00 | 0.04 | 92 | 1005.9 |
| 20260508161942 | 73 | 35 | 0.0 | 0.0 | 0.00 | 0.00 | 0.04 | 93 | 1005.9 |
| 20260508161815 | 73 | 19 | 0.0 | 0.0 | 0.00 | 0.00 | 0.04 | 93 | 1005.9 |
| 20260508161742 | 73 | 38 | 0.0 | 0.0 | 0.00 | 0.00 | 0.04 | 93 | 1005.9 |
| 20260508161653 | 73 | 34 | 0.0 | 0.0 | 0.00 | 0.00 | 0.04 | 92 | 1006.0 |
| 20260508161534 | 73 | 68 | 0.0 | 0.0 | 0.00 | 0.00 | 0.04 | 93 | 1006.0 |
| 20260508161445 | 73 | 24 | 0.0 | 0.0 | 0.00 | 0.00 | 0.04 | 93 | 1006.0 |
| 20260508161328 | 73 | 54 | 0.0 | 0.0 | 0.00 | 0.00 | 0.04 | 93 | 1006.0 |
| 20260508161219 | 73 | 40 | 0.0 | 0.0 | 0.00 | 0.00 | 0.04 | 93 | 1006.0 |
| 20260508161143 | 73 | 28 | 0.0 | 0.0 | 0.00 | 0.00 | 0.04 | 93 | 1006.0 |
| 20260508161021 | 73 | 355 | 0.0 | 0.0 | 0.00 | 0.00 | 0.04 | 93 | 1006.0 |
| 20260508160943 | 73 | 35 | 0.0 | 0.0 | 0.00 | 0.00 | 0.04 | 93 | 1006.0 |
| 20260508160857 | 73 | 31 | 0.0 | 0.0 | 0.00 | 0.00 | 0.04 | 93 | 1006.0 |
| 20260508160737 | 73 | 65 | 0.0 | 0.0 | 0.00 | 0.00 | 0.04 | 93 | 1006.0 |
| 20260508160633 | 73 | 40 | 0.0 | 0.0 | 0.00 | 0.00 | 0.04 | 93 | 1006.0 |
| 20260508160531 | 73 | 42 | 0.0 | 0.0 | 0.00 | 0.00 | 0.04 | 93 | 1006.0 |
| 20260508160432 | 73 | 10 | 0.0 | 0.0 | 0.00 | 0.00 | 0.04 | 93 | 1006.0 |
| 20260508160326 | 73 | 34 | 0.0 | 0.0 | 0.00 | 0.00 | 0.04 | 93 | 1006.0 |
| 20260508160222 | 73 | 59 | 0.0 | 0.0 | 0.00 | 0.00 | 0.04 | 93 | 1006.0 |
| 20260508160123 | 73 | 46 | 0.0 | 0.0 | 0.00 | 0.00 | 0.04 | 93 | 1006.1 |
| 20260508160035 | 73 | 36 | 0.0 | 0.0 | 0.00 | 0.00 | 0.04 | 93 | 1006.1 |
| 20260508155939 | 73 | 17 | 0.0 | 0.0 | 0.00 | 0.00 | 0.04 | 93 | 1006.1 |
| 20260508155830 | 73 | 29 | 0.0 | 0.0 | 0.00 | 0.00 | 0.04 | 93 | 1006.1 |
| 20260508155731 | 73 | 118 | 0.0 | 0.0 | 0.00 | 0.00 | 0.04 | 93 | 1006.1 |
| 20260508155646 | 73 | 33 | 0.0 | 0.0 | 0.00 | 0.00 | 0.04 | 93 | 1006.1 |
| 20260508155547 | 73 | 44 | 0.0 | 0.0 | 0.00 | 0.00 | 0.04 | 92 | 1006.1 |
| 20260508155420 | 73 | 35 | 0.0 | 0.0 | 0.00 | 0.00 | 0.04 | 92 | 1006.1 |
| 20260508155326 | 73 | 25 | 0.0 | 0.0 | 0.00 | 0.00 | 0.04 | 92 | 1006.1 |
| 20260508155246 | 73 | 28 | 0.0 | 0.0 | 0.00 | 0.00 | 0.04 | 92 | 1006.1 |
| 20260508155140 | 73 | 20 | 0.0 | 0.0 | 0.00 | 0.00 | 0.04 | 93 | 1006.1 |
| 20260508155041 | 73 | 19 | 0.0 | 0.0 | 0.00 | 0.00 | 0.04 | 92 | 1006.1 |
| 20260508154918 | 73 | 42 | 0.0 | 0.0 | 0.00 | 0.00 | 0.04 | 92 | 1006.1 |
| 20260508154830 | 73 | 18 | 0.0 | 0.0 | 0.00 | 0.00 | 0.04 | 92 | 1006.1 |
| 20260508154730 | 73 | 50 | 0.0 | 0.0 | 0.00 | 0.00 | 0.04 | 93 | 1006.1 |
| 20260508154645 | 73 | 25 | 0.0 | 0.0 | 0.00 | 0.00 | 0.04 | 93 | 1006.1 |
| 20260508154548 | 73 | 17 | 0.0 | 0.0 | 0.00 | 0.00 | 0.04 | 93 | 1006.1 |
| 20260508154448 | 73 | 34 | 0.0 | 0.0 | 0.00 | 0.00 | 0.04 | 92 | 1006.1 |
| 20260508154319 | 74 | 26 | 0.0 | 0.0 | 0.00 | 0.00 | 0.04 | 92 | 1006.1 |
| 20260508154231 | 74 | 32 | 0.0 | 0.0 | 0.00 | 0.00 | 0.04 | 92 | 1006.1 |
| 20260508154117 | 74 | 355 | 0.0 | 0.0 | 0.00 | 0.00 | 0.04 | 92 | 1006.1 |
| 20260508154030 | 74 | 52 | 0.0 | 0.0 | 0.00 | 0.00 | 0.04 | 92 | 1006.1 |
| 20260508153931 | 74 | 32 | 0.0 | 0.0 | 0.00 | 0.00 | 0.04 | 92 | 1006.1 |
| 20260508153824 | 74 | 26 | 0.0 | 0.0 | 0.00 | 0.00 | 0.04 | 92 | 1006.1 |
| 20260508153745 | 74 | 34 | 0.0 | 0.0 | 0.00 | 0.00 | 0.04 | 92 | 1006.1 |
| 20260508153636 | 74 | 40 | 0.0 | 0.0 | 0.00 | 0.00 | 0.04 | 92 | 1006.1 |
| 20260508153531 | 74 | 44 | 0.0 | 0.0 | 0.00 | 0.00 | 0.04 | 92 | 1006.1 |
| 20260508153437 | 74 | 32 | 0.0 | 0.0 | 0.00 | 0.00 | 0.04 | 92 | 1006.1 |
| 20260508153329 | 74 | 32 | 0.0 | 0.0 | 0.00 | 0.00 | 0.04 | 92 | 1006.1 |
| 20260508153231 | 74 | 45 | 0.0 | 0.0 | 0.00 | 0.00 | 0.04 | 92 | 1006.1 |
| 20260508153123 | 74 | 80 | 0.0 | 0.0 | 0.00 | 0.00 | 0.04 | 92 | 1006.1 |
| 20260508153022 | 74 | 61 | 0.0 | 0.0 | 0.00 | 0.00 | 0.04 | 93 | 1006.1 |
| 20260508152922 | 74 | 61 | 0.0 | 0.0 | 0.00 | 0.00 | 0.04 | 93 | 1006.1 |
| 20260508152823 | 74 | 61 | 0.0 | 0.0 | 0.00 | 0.00 | 0.04 | 93 | 1006.1 |
| 20260508152733 | 74 | 61 | 0.0 | 0.0 | 0.00 | 0.00 | 0.04 | 93 | 1006.1 |
| 20260508152633 | 74 | 61 | 0.0 | 0.0 | 0.00 | 0.00 | 0.04 | 93 | 1006.1 |
| 20260508152530 | 74 | 61 | 0.0 | 0.0 | 0.00 | 0.00 | 0.04 | 93 | 1006.1 |
| 20260508152452 | 74 | 59 | 0.0 | 0.0 | 0.00 | 0.00 | 0.04 | 93 | 1006.1 |
| 20260508152322 | 74 | 355 | 0.0 | 0.0 | 0.00 | 0.00 | 0.04 | 93 | 1006.1 |
| 20260508152247 | 74 | 87 | 0.0 | 0.0 | 0.00 | 0.00 | 0.04 | 93 | 1006.1 |
| 20260508152150 | 74 | 40 | 0.0 | 0.0 | 0.00 | 0.00 | 0.04 | 93 | 1006.1 |
| 20260508152022 | 74 | 17 | 0.0 | 0.0 | 0.00 | 0.00 | 0.04 | 93 | 1006.1 |
| 20260508151918 | 74 | 15 | 0.0 | 0.0 | 0.00 | 0.00 | 0.04 | 94 | 1006.1 |
| 20260508151843 | 74 | 49 | 0.0 | 0.0 | 0.00 | 0.00 | 0.04 | 94 | 1006.1 |
| 20260508151804 | 74 | 36 | 0.0 | 0.0 | 0.00 | 0.00 | 0.04 | 94 | 1006.1 |
| 20260508151653 | 74 | 24 | 0.0 | 0.0 | 0.00 | 0.00 | 0.04 | 94 | 1006.4 |
| 20260508151539 | 74 | 14 | 0.0 | 0.0 | 0.00 | 0.00 | 0.04 | 94 | 1006.4 |
| 20260508151451 | 74 | 42 | 0.0 | 0.0 | 0.00 | 0.00 | 0.04 | 94 | 1006.4 |
| 20260508151332 | 73 | 42 | 0.0 | 0.0 | 0.00 | 0.00 | 0.04 | 93 | 1006.4 |
| 20260508151226 | 73 | 30 | 0.0 | 0.0 | 0.00 | 0.00 | 0.04 | 93 | 1006.4 |
| 20260508151118 | 74 | 38 | 0.0 | 0.0 | 0.00 | 0.00 | 0.04 | 93 | 1006.4 |
| 20260508151026 | 74 | 65 | 0.0 | 0.0 | 0.00 | 0.00 | 0.04 | 94 | 1006.4 |
| 20260508150921 | 74 | 38 | 0.0 | 0.0 | 0.00 | 0.00 | 0.04 | 93 | 1006.4 |
| 20260508150841 | 74 | 38 | 0.0 | 0.0 | 0.00 | 0.00 | 0.04 | 93 | 1006.4 |
| 20260508150716 | 74 | 55 | 0.0 | 0.0 | 0.00 | 0.00 | 0.04 | 93 | 1006.4 |
| 20260508150631 | 74 | 29 | 0.0 | 0.0 | 0.00 | 0.00 | 0.04 | 93 | 1006.4 |
| 20260508150534 | 74 | 30 | 0.0 | 0.0 | 0.00 | 0.00 | 0.04 | 93 | 1006.4 |
| 20260508150425 | 74 | 34 | 0.0 | 0.0 | 0.00 | 0.00 | 0.04 | 93 | 1006.4 |
| 20260508150331 | 74 | 58 | 0.0 | 0.0 | 0.00 | 0.00 | 0.04 | 93 | 1006.4 |
| 20260508150222 | 74 | 40 | 0.0 | 0.0 | 0.00 | 0.00 | 0.04 | 93 | 1006.4 |
| 20260508150143 | 74 | 22 | 0.0 | 0.0 | 0.00 | 0.00 | 0.04 | 94 | 1006.4 |
| 20260508150038 | 74 | 28 | 0.0 | 0.0 | 0.00 | 0.00 | 0.04 | 94 | 1006.3 |
| 20260508145929 | 74 | 59 | 0.0 | 0.0 | 0.00 | 0.00 | 0.04 | 94 | 1006.3 |
| 20260508145850 | 74 | 59 | 0.0 | 0.0 | 0.00 | 0.00 | 0.04 | 94 | 1006.3 |
| 20260508145720 | 73 | 9 | 0.0 | 0.0 | 0.00 | 0.00 | 0.04 | 94 | 1006.3 |
| 20260508145646 | 73 | 29 | 0.0 | 0.0 | 0.00 | 0.00 | 0.04 | 94 | 1006.3 |
| 20260508145610 | 73 | 24 | 0.0 | 0.0 | 0.00 | 0.00 | 0.04 | 93 | 1006.3 |
| 20260508145420 | 73 | 19 | 0.0 | 0.0 | 0.00 | 0.00 | 0.04 | 93 | 1006.3 |